Wetterdaten: aktuell Montag, 20.01.2020 15:32
Datum Zeit Temp. 2m Temp. 5cm Temp. -10cm Feuchte 2m Luftdruck Regen Wind Richtung Richtung Taupunkt Windchill Windben
20.01.2020 15:32 0,0 C 1,0 C 1,1 C 90 % 1044,8 hPa 0,0 l/m 5,3 km/h (1 Bft) NW 315 -1,4 C 0,0 C 7,5 km/h (2 Bft)
20.01.2020 15:30 0,0 C 1,0 C 1,1 C 90 % 1044,8 hPa 0,0 l/m 5,1 km/h (1 Bft) W-NW 292 -1,4 C 0,0 C 7,5 km/h (2 Bft)
20.01.2020 15:28 0,0 C 1,0 C 1,1 C 90 % 1044,5 hPa 0,0 l/m 5,1 km/h (1 Bft) W 270 -1,4 C 0,0 C 7,1 km/h (2 Bft)
20.01.2020 15:26 0,0 C 1,0 C 1,1 C 90 % 1044,5 hPa 0,0 l/m 5,1 km/h (1 Bft) W-NW 292 -1,4 C 0,0 C 6,6 km/h (2 Bft)
20.01.2020 15:24 0,0 C 1,0 C 1,1 C 90 % 1044,5 hPa 0,0 l/m 5,1 km/h (1 Bft) W-NW 292 -1,4 C 0,0 C 6,6 km/h (2 Bft)
20.01.2020 15:22 0,0 C 1,0 C 1,1 C 90 % 1044,5 hPa 0,0 l/m 5,1 km/h (1 Bft) W-NW 292 -1,4 C 0,0 C 6,0 km/h (2 Bft)
20.01.2020 15:20 0,0 C 1,0 C 1,1 C 90 % 1044,5 hPa 0,0 l/m 4,8 km/h (1 Bft) W-NW 292 -1,4 C 0,0 C 6,4 km/h (2 Bft)
20.01.2020 15:18 0,2 C 1,0 C 1,1 C 90 % 1044,5 hPa 0,0 l/m 4,3 km/h (1 Bft) W-NW 292 -1,2 C 0,2 C 7,0 km/h (2 Bft)
20.01.2020 15:16 0,2 C 1,0 C 1,1 C 90 % 1044,5 hPa 0,0 l/m 3,5 km/h (1 Bft) W-NW 292 -1,2 C 0,2 C 7,0 km/h (2 Bft)
20.01.2020 15:14 0,2 C 1,0 C 1,1 C 90 % 1044,5 hPa 0,0 l/m 2,9 km/h (1 Bft) W-NW 292 -1,2 C 0,2 C 7,0 km/h (2 Bft)
20.01.2020 15:12 0,2 C 1,0 C 1,1 C 90 % 1044,5 hPa 0,0 l/m 2,3 km/h (1 Bft) W-NW 292 -1,2 C 0,2 C 6,2 km/h (2 Bft)
20.01.2020 15:10 0,3 C 1,0 C 1,1 C 90 % 1044,5 hPa 0,0 l/m 1,6 km/h (1 Bft) W 270 -1,1 C 0,3 C 3,9 km/h (1 Bft)
20.01.2020 15:08 0,3 C 1,0 C 1,1 C 90 % 1044,6 hPa 0,0 l/m 1,1 km/h (1 Bft) W 270 -1,1 C 0,3 C 2,7 km/h (1 Bft)
20.01.2020 15:06 0,3 C 1,0 C 1,1 C 90 % 1044,6 hPa 0,0 l/m 0,8 km/h (0 Bft) W-NW 292 -1,1 C 0,3 C 2,9 km/h (1 Bft)
20.01.2020 15:04 0,3 C 1,0 C 1,1 C 90 % 1044,6 hPa 0,0 l/m 0,6 km/h (0 Bft) W-NW 292 -1,1 C 0,3 C 2,3 km/h (1 Bft)
20.01.2020 15:02 0,3 C 1,0 C 1,1 C 90 % 1044,6 hPa 0,0 l/m 0,3 km/h (0 Bft) W 270 -1,1 C 0,3 C 3,1 km/h (1 Bft)
20.01.2020 15:00 0,3 C 1,0 C 1,1 C 90 % 1044,6 hPa 0,0 l/m 0,0 km/h (0 Bft) W-NW 292 -1,1 C 0,3 C 2,7 km/h (1 Bft)
20.01.2020 14:58 0,3 C 1,0 C 1,1 C 90 % 1044,6 hPa 0,0 l/m 0,0 km/h (0 Bft) W-NW 292 -1,1 C 0,3 C 0,0 km/h (0 Bft)
20.01.2020 14:56 0,3 C 1,0 C 1,1 C 90 % 1044,6 hPa 0,0 l/m 0,0 km/h (0 Bft) W-NW 292 -1,1 C 0,3 C 0,0 km/h (0 Bft)
20.01.2020 14:54 0,2 C 1,0 C 1,1 C 90 % 1044,6 hPa 0,0 l/m 0,0 km/h (0 Bft) NW 315 -1,2 C 0,2 C 0,0 km/h (0 Bft)
20.01.2020 14:52 0,2 C 1,0 C 1,1 C 90 % 1044,6 hPa 0,0 l/m 0,0 km/h (0 Bft) W-NW 292 -1,2 C 0,2 C 0,0 km/h (0 Bft)
20.01.2020 14:50 0,2 C 1,0 C 1,1 C 90 % 1044,6 hPa 0,0 l/m 0,0 km/h (0 Bft) NW 315 -1,2 C 0,2 C 0,0 km/h (0 Bft)
20.01.2020 14:48 0,0 C 1,0 C 1,1 C 90 % 1044,6 hPa 0,0 l/m 0,0 km/h (0 Bft) W-NW 292 -1,4 C 0,0 C 0,0 km/h (0 Bft)
20.01.2020 14:46 0,0 C 1,0 C 1,1 C 90 % 1044,6 hPa 0,0 l/m 0,0 km/h (0 Bft) NW 315 -1,4 C 0,0 C 0,0 km/h (0 Bft)
20.01.2020 14:44 0,0 C 1,0 C 1,1 C 90 % 1044,6 hPa 0,0 l/m 0,0 km/h (0 Bft) NW 315 -1,4 C 0,0 C 0,0 km/h (0 Bft)
20.01.2020 14:42 0,2 C 1,0 C 1,1 C 90 % 1044,6 hPa 0,0 l/m 0,0 km/h (0 Bft) N-NO 22 -1,2 C 0,2 C 0,0 km/h (0 Bft)
20.01.2020 14:40 0,2 C 1,0 C 1,1 C 90 % 1044,6 hPa 0,0 l/m 0,0 km/h (0 Bft) O-NO 67 -1,2 C 0,2 C 0,0 km/h (0 Bft)
20.01.2020 14:38 0,2 C 1,0 C 1,1 C 90 % 1044,6 hPa 0,0 l/m 0,0 km/h (0 Bft) O 90 -1,2 C 0,2 C 0,0 km/h (0 Bft)
20.01.2020 14:36 0,3 C 1,1 C 1,1 C 90 % 1044,6 hPa 0,0 l/m 0,0 km/h (0 Bft) SO 135 -1,1 C 0,3 C 0,0 km/h (0 Bft)
20.01.2020 14:34 0,2 C 1,1 C 1,1 C 90 % 1044,6 hPa 0,0 l/m 0,0 km/h (0 Bft) O-NO 67 -1,2 C 0,2 C 0,0 km/h (0 Bft)
20.01.2020 14:32 0,2 C 1,1 C 1,1 C 90 % 1044,6 hPa 0,0 l/m 0,0 km/h (0 Bft) O-SO 112 -1,2 C 0,2 C 0,0 km/h (0 Bft)
20.01.2020 14:30 0,2 C 1,1 C 1,1 C 90 % 1044,6 hPa 0,0 l/m 0,0 km/h (0 Bft) O 90 -1,2 C 0,2 C 0,0 km/h (0 Bft)
20.01.2020 14:28 0,3 C 1,1 C 1,1 C 90 % 1044,8 hPa 0,0 l/m 0,2 km/h (0 Bft) O 90 -1,1 C 0,3 C 0,0 km/h (0 Bft)
20.01.2020 14:26 0,3 C 1,1 C 1,1 C 90 % 1044,8 hPa 0,0 l/m 0,5 km/h (0 Bft) O-SO 112 -1,1 C 0,3 C 0,0 km/h (0 Bft)
20.01.2020 14:24 0,3 C 1,1 C 1,1 C 90 % 1044,8 hPa 0,0 l/m 1,0 km/h (0 Bft) O 90 -1,1 C 0,3 C 0,0 km/h (0 Bft)
20.01.2020 14:22 0,3 C 1,1 C 1,1 C 90 % 1044,8 hPa 0,0 l/m 1,6 km/h (1 Bft) O 90 -1,1 C 0,3 C 0,0 km/h (0 Bft)
20.01.2020 14:20 0,2 C 1,1 C 1,1 C 90 % 1044,8 hPa 0,0 l/m 2,3 km/h (1 Bft) SW 225 -1,2 C 0,2 C 0,0 km/h (0 Bft)
20.01.2020 14:18 0,2 C 1,0 C 1,1 C 90 % 1044,8 hPa 0,0 l/m 2,9 km/h (1 Bft) W-NW 292 -1,2 C 0,2 C 0,0 km/h (0 Bft)
20.01.2020 14:16 0,2 C 1,0 C 1,1 C 90 % 1044,8 hPa 0,0 l/m 3,5 km/h (1 Bft) NW 315 -1,2 C 0,2 C 3,1 km/h (1 Bft)
20.01.2020 14:14 0,2 C 1,0 C 1,1 C 90 % 1044,8 hPa 0,0 l/m 3,7 km/h (1 Bft) W-NW 292 -1,2 C 0,2 C 2,7 km/h (1 Bft)
20.01.2020 14:12 0,0 C 1,0 C 1,1 C 90 % 1044,8 hPa 0,0 l/m 3,9 km/h (1 Bft) W-NW 292 -1,4 C 0,0 C 4,8 km/h (1 Bft)
20.01.2020 14:10 0,0 C 1,0 C 1,1 C 90 % 1044,8 hPa 0,0 l/m 3,5 km/h (1 Bft) W-NW 292 -1,4 C 0,0 C 3,9 km/h (1 Bft)
20.01.2020 14:08 0,0 C 1,0 C 1,1 C 90 % 1044,8 hPa 0,0 l/m 3,5 km/h (1 Bft) W-NW 292 -1,4 C 0,0 C 7,5 km/h (2 Bft)
20.01.2020 14:06 -0,1 C 1,0 C 1,1 C 90 % 1044,8 hPa 0,0 l/m 2,7 km/h (1 Bft) W-NW 292 -1,5 C -0,1 C 6,8 km/h (2 Bft)
20.01.2020 14:04 -0,1 C 1,0 C 1,1 C 90 % 1044,8 hPa 0,0 l/m 2,6 km/h (1 Bft) W-NW 292 -1,5 C -0,1 C 3,5 km/h (1 Bft)
20.01.2020 14:02 -0,1 C 1,0 C 1,1 C 90 % 1044,8 hPa 0,0 l/m 2,7 km/h (1 Bft) W 270 -1,5 C -0,1 C 4,8 km/h (1 Bft)
20.01.2020 14:00 0,0 C 1,0 C 1,1 C 90 % 1044,8 hPa 0,0 l/m 2,6 km/h (1 Bft) W 270 -1,4 C 0,0 C 2,9 km/h (1 Bft)
20.01.2020 13:58 0,0 C 1,0 C 1,1 C 90 % 1044,8 hPa 0,0 l/m 2,6 km/h (1 Bft) W 270 -1,4 C 0,0 C 6,2 km/h (2 Bft)
20.01.2020 13:56 0,0 C 1,0 C 1,1 C 90 % 1044,8 hPa 0,0 l/m 3,1 km/h (1 Bft) W 270 -1,4 C 0,0 C 3,1 km/h (1 Bft)
20.01.2020 13:54 0,2 C 1,0 C 1,1 C 90 % 1044,8 hPa 0,0 l/m 3,1 km/h (1 Bft) SW 225 -1,2 C 0,2 C 3,1 km/h (1 Bft)
20.01.2020 13:52 0,2 C 1,0 C 1,1 C 90 % 1044,8 hPa 0,0 l/m 3,2 km/h (1 Bft) W 270 -1,2 C 0,2 C 6,2 km/h (2 Bft)
20.01.2020 13:50 0,2 C 1,0 C 1,1 C 90 % 1044,8 hPa 0,0 l/m 3,2 km/h (1 Bft) W-NW 292 -1,2 C 0,2 C 4,1 km/h (1 Bft)
20.01.2020 13:48 0,2 C 1,0 C 1,1 C 90 % 1044,7 hPa 0,0 l/m 2,7 km/h (1 Bft) W-NW 292 -1,2 C 0,2 C 5,8 km/h (2 Bft)
20.01.2020 13:46 0,2 C 1,0 C 1,1 C 90 % 1044,7 hPa 0,0 l/m 2,4 km/h (1 Bft) W-NW 292 -1,2 C 0,2 C 5,2 km/h (1 Bft)
20.01.2020 13:44 0,2 C 1,0 C 1,1 C 90 % 1044,7 hPa 0,0 l/m 1,8 km/h (1 Bft) W 270 -1,2 C 0,2 C 4,2 km/h (1 Bft)
20.01.2020 13:42 0,2 C 1,0 C 1,1 C 90 % 1044,7 hPa 0,0 l/m 1,1 km/h (1 Bft) W-NW 292 -1,2 C 0,2 C 4,8 km/h (1 Bft)
20.01.2020 13:40 0,2 C 1,0 C 1,1 C 90 % 1044,7 hPa 0,0 l/m 0,6 km/h (0 Bft) W-NW 292 -1,2 C 0,2 C 3,3 km/h (1 Bft)
20.01.2020 13:38 0,1 C 1,0 C 1,1 C 90 % 1044,7 hPa 0,0 l/m 0,3 km/h (0 Bft) W 270 -1,3 C 0,1 C 0,0 km/h (0 Bft)
20.01.2020 13:36 0,1 C 1,0 C 1,1 C 90 % 1044,7 hPa 0,0 l/m 0,3 km/h (0 Bft) NW 315 -1,3 C 0,1 C 0,0 km/h (0 Bft)
20.01.2020 13:34 0,1 C 1,0 C 1,1 C 90 % 1044,7 hPa 0,0 l/m 0,2 km/h (0 Bft) W-SW 247 -1,3 C 0,1 C 0,0 km/h (0 Bft)
20.01.2020 13:32 0,1 C 1,0 C 1,1 C 90 % 1044,7 hPa 0,0 l/m 0,2 km/h (0 Bft) W-NW 292 -1,3 C 0,1 C 0,0 km/h (0 Bft)
20.01.2020 13:30 0,2 C 1,0 C 1,1 C 90 % 1044,7 hPa 0,0 l/m 0,2 km/h (0 Bft) SO 135 -1,2 C 0,2 C 2,1 km/h (1 Bft)
20.01.2020 13:28 0,3 C 1,0 C 1,1 C 90 % 1044,6 hPa 0,0 l/m 0,0 km/h (0 Bft) W-SW 247 -1,1 C 0,3 C 0,0 km/h (0 Bft)
20.01.2020 13:26 0,3 C 1,0 C 1,1 C 90 % 1044,6 hPa 0,0 l/m 0,0 km/h (0 Bft) SW 225 -1,1 C 0,3 C 0,0 km/h (0 Bft)
20.01.2020 13:24 0,3 C 1,0 C 1,1 C 90 % 1044,6 hPa 0,0 l/m 0,0 km/h (0 Bft) W-NW 292 -1,1 C 0,3 C 0,0 km/h (0 Bft)
20.01.2020 13:22 0,1 C 1,0 C 1,1 C 90 % 1044,6 hPa 0,0 l/m 0,0 km/h (0 Bft) W-NW 292 -1,3 C 0,1 C 0,0 km/h (0 Bft)
20.01.2020 13:20 0,1 C 1,0 C 1,1 C 90 % 1044,6 hPa 0,0 l/m 0,0 km/h (0 Bft) S-SW 202 -1,3 C 0,1 C 0,0 km/h (0 Bft)
20.01.2020 13:18 0,1 C 1,0 C 1,1 C 90 % 1044,6 hPa 0,0 l/m 0,0 km/h (0 Bft) SW 225 -1,3 C 0,1 C 0,0 km/h (0 Bft)
20.01.2020 13:16 0,1 C 1,0 C 1,1 C 90 % 1044,6 hPa 0,0 l/m 0,0 km/h (0 Bft) W-NW 292 -1,3 C 0,1 C 0,0 km/h (0 Bft)
20.01.2020 13:14 0,3 C 1,0 C 1,1 C 90 % 1044,6 hPa 0,0 l/m 0,0 km/h (0 Bft) W-NW 292 -1,1 C 0,3 C 0,0 km/h (0 Bft)
20.01.2020 13:12 0,3 C 1,0 C 1,1 C 90 % 1044,6 hPa 0,0 l/m 0,0 km/h (0 Bft) NW 315 -1,1 C 0,3 C 0,0 km/h (0 Bft)
20.01.2020 13:10 0,1 C 1,0 C 1,1 C 90 % 1044,6 hPa 0,0 l/m 0,0 km/h (0 Bft) W-NW 292 -1,3 C 0,1 C 0,0 km/h (0 Bft)
20.01.2020 13:08 0,3 C 1,0 C 1,1 C 90 % 1044,8 hPa 0,0 l/m 0,0 km/h (0 Bft) W 270 -1,1 C 0,3 C 0,0 km/h (0 Bft)
20.01.2020 13:06 0,3 C 1,0 C 1,1 C 91 % 1044,8 hPa 0,0 l/m 0,0 km/h (0 Bft) W 270 -1,0 C 0,3 C 0,0 km/h (0 Bft)
20.01.2020 13:04 0,3 C 1,0 C 1,1 C 91 % 1044,8 hPa 0,0 l/m 0,0 km/h (0 Bft) W 270 -1,0 C 0,3 C 0,0 km/h (0 Bft)
20.01.2020 13:02 0,3 C 1,1 C 1,1 C 91 % 1044,8 hPa 0,0 l/m 0,0 km/h (0 Bft) W 270 -1,0 C 0,3 C 0,0 km/h (0 Bft)
20.01.2020 13:00 0,3 C 1,1 C 1,1 C 91 % 1044,8 hPa 0,0 l/m 0,0 km/h (0 Bft) W 270 -1,0 C 0,3 C 0,0 km/h (0 Bft)
20.01.2020 12:58 0,3 C 1,0 C 1,1 C 91 % 1044,8 hPa 0,0 l/m 0,0 km/h (0 Bft) W 270 -1,0 C 0,3 C 0,0 km/h (0 Bft)
20.01.2020 12:56 0,3 C 1,1 C 1,1 C 91 % 1044,8 hPa 0,0 l/m 0,0 km/h (0 Bft) W 270 -1,0 C 0,3 C 0,0 km/h (0 Bft)
20.01.2020 12:54 0,3 C 1,1 C 1,1 C 91 % 1044,8 hPa 0,0 l/m 0,0 km/h (0 Bft) W 270 -1,0 C 0,3 C 0,0 km/h (0 Bft)
20.01.2020 12:52 0,3 C 1,1 C 1,1 C 91 % 1044,8 hPa 0,0 l/m 0,0 km/h (0 Bft) W 270 -1,0 C 0,3 C 0,0 km/h (0 Bft)
20.01.2020 12:50 0,3 C 1,1 C 1,1 C 91 % 1044,8 hPa 0,0 l/m 0,0 km/h (0 Bft) W 270 -1,0 C 0,3 C 0,0 km/h (0 Bft)
20.01.2020 12:48 0,3 C 1,1 C 1,1 C 91 % 1044,9 hPa 0,0 l/m 0,0 km/h (0 Bft) W 270 -1,0 C 0,3 C 0,0 km/h (0 Bft)
20.01.2020 12:46 0,4 C 1,1 C 1,1 C 91 % 1044,9 hPa 0,0 l/m 0,0 km/h (0 Bft) W 270 -0,9 C 0,4 C 0,0 km/h (0 Bft)
20.01.2020 12:44 0,4 C 1,1 C 1,1 C 91 % 1044,9 hPa 0,0 l/m 0,0 km/h (0 Bft) W 270 -0,9 C 0,4 C 0,0 km/h (0 Bft)
20.01.2020 12:42 0,4 C 1,1 C 1,1 C 91 % 1044,9 hPa 0,0 l/m 0,0 km/h (0 Bft) W 270 -0,9 C 0,4 C 0,0 km/h (0 Bft)
20.01.2020 12:40 0,4 C 1,0 C 1,1 C 91 % 1044,9 hPa 0,0 l/m 0,0 km/h (0 Bft) W 270 -0,9 C 0,4 C 0,0 km/h (0 Bft)
20.01.2020 12:38 0,4 C 1,0 C 1,1 C 91 % 1044,9 hPa 0,0 l/m 0,0 km/h (0 Bft) W 270 -0,9 C 0,4 C 0,0 km/h (0 Bft)
20.01.2020 12:36 0,4 C 1,0 C 1,1 C 91 % 1044,9 hPa 0,0 l/m 0,0 km/h (0 Bft) W 270 -0,9 C 0,4 C 0,0 km/h (0 Bft)
20.01.2020 12:34 0,4 C 1,0 C 1,1 C 91 % 1044,9 hPa 0,0 l/m 0,0 km/h (0 Bft) W 270 -0,9 C 0,4 C 0,0 km/h (0 Bft)
20.01.2020 12:32 0,4 C 1,0 C 1,1 C 91 % 1044,9 hPa 0,0 l/m 0,0 km/h (0 Bft) W 270 -0,9 C 0,4 C 0,0 km/h (0 Bft)
20.01.2020 12:30 0,4 C 1,0 C 1,1 C 91 % 1044,9 hPa 0,0 l/m 0,0 km/h (0 Bft) W 270 -0,9 C 0,4 C 0,0 km/h (0 Bft)
20.01.2020 12:28 0,4 C 1,0 C 1,1 C 91 % 1044,4 hPa 0,0 l/m 0,0 km/h (0 Bft) W 270 -0,9 C 0,4 C 0,0 km/h (0 Bft)
20.01.2020 12:26 0,4 C 1,0 C 1,1 C 91 % 1044,4 hPa 0,0 l/m 0,0 km/h (0 Bft) W 270 -0,9 C 0,4 C 0,0 km/h (0 Bft)
20.01.2020 12:24 0,4 C 1,0 C 1,1 C 91 % 1044,4 hPa 0,0 l/m 0,0 km/h (0 Bft) W 270 -0,9 C 0,4 C 0,0 km/h (0 Bft)
20.01.2020 12:22 0,4 C 1,0 C 1,1 C 91 % 1044,4 hPa 0,0 l/m 0,0 km/h (0 Bft) W 270 -0,9 C 0,4 C 0,0 km/h (0 Bft)
20.01.2020 12:20 0,3 C 1,0 C 1,1 C 91 % 1044,4 hPa 0,0 l/m 0,0 km/h (0 Bft) W 270 -1,0 C 0,3 C 0,0 km/h (0 Bft)
20.01.2020 12:18 0,3 C 1,0 C 1,1 C 92 % 1044,4 hPa 0,0 l/m 0,0 km/h (0 Bft) W 270 -0,8 C 0,3 C 0,0 km/h (0 Bft)
20.01.2020 12:16 0,3 C 1,0 C 1,1 C 92 % 1044,4 hPa 0,0 l/m 0,0 km/h (0 Bft) W 270 -0,8 C 0,3 C 0,0 km/h (0 Bft)
20.01.2020 12:14 0,3 C 1,0 C 1,1 C 92 % 1044,4 hPa 0,0 l/m 0,0 km/h (0 Bft) W 270 -0,8 C 0,3 C 0,0 km/h (0 Bft)
20.01.2020 12:12 0,3 C 1,0 C 1,1 C 92 % 1044,4 hPa 0,0 l/m 0,0 km/h (0 Bft) W 270 -0,8 C 0,3 C 0,0 km/h (0 Bft)
20.01.2020 12:10 0,0 C 0,9 C 1,1 C 92 % 1044,4 hPa 0,0 l/m 0,0 km/h (0 Bft) W 270 -1,1 C 0,0 C 0,0 km/h (0 Bft)
20.01.2020 12:08 0,0 C 0,9 C 1,1 C 92 % 1044,6 hPa 0,0 l/m 0,0 km/h (0 Bft) W 270 -1,1 C 0,0 C 0,0 km/h (0 Bft)
20.01.2020 12:06 0,0 C 0,9 C 1,1 C 92 % 1044,6 hPa 0,0 l/m 0,0 km/h (0 Bft) W 270 -1,1 C 0,0 C 0,0 km/h (0 Bft)
20.01.2020 12:04 0,0 C 0,9 C 1,1 C 92 % 1044,6 hPa 0,0 l/m 0,0 km/h (0 Bft) W 270 -1,1 C 0,0 C 0,0 km/h (0 Bft)
20.01.2020 12:02 0,0 C 0,9 C 1,1 C 92 % 1044,6 hPa 0,0 l/m 0,0 km/h (0 Bft) W 270 -1,1 C 0,0 C 0,0 km/h (0 Bft)
20.01.2020 12:00 -0,1 C 0,9 C 1,1 C 92 % 1044,6 hPa 0,0 l/m 0,0 km/h (0 Bft) W 270 -1,2 C -0,1 C 0,0 km/h (0 Bft)
20.01.2020 11:58 0,0 C 0,9 C 1,1 C 92 % 1044,6 hPa 0,0 l/m 0,0 km/h (0 Bft) W 270 -1,1 C 0,0 C 0,0 km/h (0 Bft)
20.01.2020 11:56 0,0 C 0,9 C 1,1 C 92 % 1044,6 hPa 0,0 l/m 0,0 km/h (0 Bft) W 270 -1,1 C 0,0 C 0,0 km/h (0 Bft)
20.01.2020 11:54 -0,1 C 0,9 C 1,1 C 92 % 1044,6 hPa 0,0 l/m 0,0 km/h (0 Bft) W 270 -1,2 C -0,1 C 0,0 km/h (0 Bft)
20.01.2020 11:52 -0,1 C 0,9 C 1,1 C 92 % 1044,6 hPa 0,0 l/m 0,0 km/h (0 Bft) W 270 -1,2 C -0,1 C 0,0 km/h (0 Bft)
20.01.2020 11:50 -0,1 C 0,9 C 1,1 C 92 % 1044,6 hPa 0,0 l/m 0,0 km/h (0 Bft) W 270 -1,2 C -0,1 C 0,0 km/h (0 Bft)
20.01.2020 11:48 0,0 C 0,9 C 1,1 C 92 % 1044,5 hPa 0,0 l/m 0,0 km/h (0 Bft) W 270 -1,1 C 0,0 C 0,0 km/h (0 Bft)
20.01.2020 11:46 0,0 C 0,9 C 1,1 C 92 % 1044,5 hPa 0,0 l/m 0,0 km/h (0 Bft) W 270 -1,1 C 0,0 C 0,0 km/h (0 Bft)
20.01.2020 11:44 0,0 C 0,9 C 1,1 C 92 % 1044,5 hPa 0,0 l/m 0,0 km/h (0 Bft) W 270 -1,1 C 0,0 C 0,0 km/h (0 Bft)
20.01.2020 11:42 -0,1 C 0,9 C 1,1 C 92 % 1044,5 hPa 0,0 l/m 0,0 km/h (0 Bft) W 270 -1,2 C -0,1 C 0,0 km/h (0 Bft)
20.01.2020 11:40 -0,1 C 0,9 C 1,1 C 92 % 1044,5 hPa 0,0 l/m 0,0 km/h (0 Bft) W 270 -1,2 C -0,1 C 0,0 km/h (0 Bft)
20.01.2020 11:38 -0,1 C 0,9 C 1,1 C 92 % 1044,5 hPa 0,0 l/m 0,0 km/h (0 Bft) W 270 -1,2 C -0,1 C 0,0 km/h (0 Bft)
20.01.2020 11:36 -0,1 C 0,9 C 1,1 C 92 % 1044,5 hPa 0,0 l/m 0,0 km/h (0 Bft) W 270 -1,2 C -0,1 C 0,0 km/h (0 Bft)
20.01.2020 11:34 -0,1 C 0,9 C 1,1 C 92 % 1044,5 hPa 0,0 l/m 0,0 km/h (0 Bft) W 270 -1,2 C -0,1 C 0,0 km/h (0 Bft)
20.01.2020 11:32 -0,1 C 0,9 C 1,1 C 92 % 1044,5 hPa 0,0 l/m 0,0 km/h (0 Bft) W 270 -1,2 C -0,1 C 0,0 km/h (0 Bft)
20.01.2020 11:30 0,0 C 0,9 C 1,1 C 92 % 1044,5 hPa 0,0 l/m 0,0 km/h (0 Bft) W 270 -1,1 C 0,0 C 0,0 km/h (0 Bft)
20.01.2020 11:28 0,0 C 0,9 C 1,1 C 92 % 1044,7 hPa 0,0 l/m 0,0 km/h (0 Bft) W 270 -1,1 C 0,0 C 0,0 km/h (0 Bft)
20.01.2020 11:26 -0,1 C 0,9 C 1,1 C 92 % 1044,7 hPa 0,0 l/m 0,0 km/h (0 Bft) W 270 -1,2 C -0,1 C 0,0 km/h (0 Bft)
20.01.2020 11:24 -0,1 C 0,9 C 1,1 C 92 % 1044,7 hPa 0,0 l/m 0,0 km/h (0 Bft) W 270 -1,2 C -0,1 C 0,0 km/h (0 Bft)
20.01.2020 11:22 0,0 C 0,9 C 1,1 C 92 % 1044,7 hPa 0,0 l/m 0,0 km/h (0 Bft) W 270 -1,1 C 0,0 C 0,0 km/h (0 Bft)
20.01.2020 11:20 0,0 C 0,9 C 1,1 C 92 % 1044,7 hPa 0,0 l/m 0,0 km/h (0 Bft) W 270 -1,1 C 0,0 C 0,0 km/h (0 Bft)
20.01.2020 11:18 -0,1 C 0,9 C 1,0 C 92 % 1044,7 hPa 0,0 l/m 0,0 km/h (0 Bft) W 270 -1,2 C -0,1 C 0,0 km/h (0 Bft)
20.01.2020 11:16 -0,1 C 0,9 C 1,0 C 92 % 1044,7 hPa 0,0 l/m 0,0 km/h (0 Bft) W 270 -1,2 C -0,1 C 0,0 km/h (0 Bft)
20.01.2020 11:14 -0,1 C 0,9 C 1,0 C 92 % 1044,7 hPa 0,0 l/m 0,0 km/h (0 Bft) W 270 -1,2 C -0,1 C 0,0 km/h (0 Bft)
20.01.2020 11:12 -0,2 C 0,9 C 1,0 C 92 % 1044,7 hPa 0,0 l/m 0,0 km/h (0 Bft) W 270 -1,3 C -0,2 C 0,0 km/h (0 Bft)
20.01.2020 11:10 -0,2 C 0,9 C 1,0 C 92 % 1044,7 hPa 0,0 l/m 0,0 km/h (0 Bft) W 270 -1,3 C -0,2 C 0,0 km/h (0 Bft)
20.01.2020 11:08 -0,2 C 0,9 C 1,0 C 92 % 1044,9 hPa 0,0 l/m 0,0 km/h (0 Bft) W 270 -1,3 C -0,2 C 0,0 km/h (0 Bft)
20.01.2020 11:06 -0,2 C 0,9 C 1,0 C 92 % 1044,9 hPa 0,0 l/m 0,0 km/h (0 Bft) W 270 -1,3 C -0,2 C 0,0 km/h (0 Bft)
20.01.2020 11:04 -0,4 C 0,9 C 1,0 C 92 % 1044,9 hPa 0,0 l/m 0,0 km/h (0 Bft) W 270 -1,5 C -0,4 C 0,0 km/h (0 Bft)
20.01.2020 11:02 -0,4 C 0,9 C 1,0 C 92 % 1044,9 hPa 0,0 l/m 0,0 km/h (0 Bft) W 270 -1,5 C -0,4 C 0,0 km/h (0 Bft)
20.01.2020 11:00 -0,4 C 0,9 C 1,0 C 92 % 1044,9 hPa 0,0 l/m 0,0 km/h (0 Bft) W 270 -1,5 C -0,4 C 0,0 km/h (0 Bft)
20.01.2020 10:58 -0,4 C 0,9 C 1,0 C 92 % 1044,9 hPa 0,0 l/m 0,0 km/h (0 Bft) W 270 -1,5 C -0,4 C 0,0 km/h (0 Bft)
20.01.2020 10:56 -0,4 C 0,9 C 1,0 C 92 % 1044,9 hPa 0,0 l/m 0,0 km/h (0 Bft) W 270 -1,5 C -0,4 C 0,0 km/h (0 Bft)
20.01.2020 10:54 -0,4 C 0,9 C 1,0 C 92 % 1044,9 hPa 0,0 l/m 0,0 km/h (0 Bft) W 270 -1,5 C -0,4 C 0,0 km/h (0 Bft)
20.01.2020 10:52 -0,4 C 0,9 C 1,0 C 92 % 1044,9 hPa 0,0 l/m 0,0 km/h (0 Bft) W 270 -1,5 C -0,4 C 0,0 km/h (0 Bft)
20.01.2020 10:50 -0,4 C 0,9 C 1,0 C 92 % 1044,9 hPa 0,0 l/m 0,0 km/h (0 Bft) W 270 -1,5 C -0,4 C 0,0 km/h (0 Bft)
20.01.2020 10:48 -0,4 C 0,9 C 1,0 C 92 % 1044,6 hPa 0,0 l/m 0,0 km/h (0 Bft) W 270 -1,5 C -0,4 C 0,0 km/h (0 Bft)
20.01.2020 10:46 -0,4 C 0,9 C 1,0 C 92 % 1044,6 hPa 0,0 l/m 0,0 km/h (0 Bft) W 270 -1,5 C -0,4 C 0,0 km/h (0 Bft)
20.01.2020 10:44 -0,4 C 0,9 C 1,0 C 92 % 1044,6 hPa 0,0 l/m 0,0 km/h (0 Bft) W 270 -1,5 C -0,4 C 0,0 km/h (0 Bft)
20.01.2020 10:42 -0,4 C 0,9 C 1,0 C 92 % 1044,6 hPa 0,0 l/m 0,0 km/h (0 Bft) W 270 -1,5 C -0,4 C 0,0 km/h (0 Bft)
20.01.2020 10:40 -0,5 C 0,9 C 1,0 C 92 % 1044,6 hPa 0,0 l/m 0,0 km/h (0 Bft) W 270 -1,6 C -0,5 C 0,0 km/h (0 Bft)
20.01.2020 10:38 -0,5 C 0,9 C 1,0 C 92 % 1044,6 hPa 0,0 l/m 0,0 km/h (0 Bft) W 270 -1,6 C -0,5 C 0,0 km/h (0 Bft)
20.01.2020 10:36 -0,5 C 0,9 C 1,0 C 92 % 1044,6 hPa 0,0 l/m 0,0 km/h (0 Bft) W 270 -1,6 C -0,5 C 0,0 km/h (0 Bft)
20.01.2020 10:34 -0,4 C 0,9 C 1,0 C 92 % 1044,6 hPa 0,0 l/m 0,0 km/h (0 Bft) W 270 -1,5 C -0,4 C 0,0 km/h (0 Bft)
20.01.2020 10:32 -0,5 C 0,9 C 1,0 C 92 % 1044,6 hPa 0,0 l/m 0,0 km/h (0 Bft) W 270 -1,6 C -0,5 C 0,0 km/h (0 Bft)
20.01.2020 10:30 -0,5 C 0,9 C 1,0 C 92 % 1044,6 hPa 0,0 l/m 0,0 km/h (0 Bft) W 270 -1,6 C -0,5 C 0,0 km/h (0 Bft)
20.01.2020 10:28 -0,5 C 0,9 C 1,0 C 92 % 1044,4 hPa 0,0 l/m 0,0 km/h (0 Bft) W 270 -1,6 C -0,5 C 0,0 km/h (0 Bft)
20.01.2020 10:26 -0,5 C 0,9 C 1,0 C 92 % 1044,4 hPa 0,0 l/m 0,0 km/h (0 Bft) W 270 -1,6 C -0,5 C 0,0 km/h (0 Bft)
20.01.2020 10:24 -0,5 C 0,9 C 1,0 C 92 % 1044,4 hPa 0,0 l/m 0,0 km/h (0 Bft) W-NW 292 -1,6 C -0,5 C 0,0 km/h (0 Bft)
20.01.2020 10:22 -0,5 C 0,9 C 1,0 C 92 % 1044,4 hPa 0,0 l/m 0,0 km/h (0 Bft) W-NW 292 -1,6 C -0,5 C 0,0 km/h (0 Bft)
20.01.2020 10:20 -0,5 C 0,9 C 1,0 C 92 % 1044,4 hPa 0,0 l/m 0,0 km/h (0 Bft) W-NW 292 -1,6 C -0,5 C 0,0 km/h (0 Bft)
20.01.2020 10:18 -0,5 C 0,9 C 1,0 C 92 % 1044,4 hPa 0,0 l/m 0,0 km/h (0 Bft) W-NW 292 -1,6 C -0,5 C 0,0 km/h (0 Bft)
20.01.2020 10:16 -0,5 C 0,9 C 1,0 C 92 % 1044,4 hPa 0,0 l/m 0,0 km/h (0 Bft) W-NW 292 -1,6 C -0,5 C 0,0 km/h (0 Bft)
20.01.2020 10:14 -0,5 C 0,9 C 1,0 C 92 % 1044,4 hPa 0,0 l/m 0,0 km/h (0 Bft) W-NW 292 -1,6 C -0,5 C 0,0 km/h (0 Bft)
20.01.2020 10:12 -0,5 C 0,9 C 1,0 C 92 % 1044,4 hPa 0,0 l/m 0,0 km/h (0 Bft) W-NW 292 -1,6 C -0,5 C 0,0 km/h (0 Bft)
20.01.2020 10:10 -0,5 C 0,9 C 1,0 C 92 % 1044,4 hPa 0,0 l/m 0,0 km/h (0 Bft) W-NW 292 -1,6 C -0,5 C 0,0 km/h (0 Bft)
20.01.2020 10:08 -0,5 C 0,9 C 1,0 C 92 % 1044,2 hPa 0,0 l/m 0,0 km/h (0 Bft) W-NW 292 -1,6 C -0,5 C 0,0 km/h (0 Bft)
20.01.2020 10:06 -0,5 C 0,9 C 1,0 C 92 % 1044,2 hPa 0,0 l/m 0,0 km/h (0 Bft) W-NW 292 -1,6 C -0,5 C 0,0 km/h (0 Bft)
20.01.2020 10:04 -0,6 C 0,9 C 1,0 C 92 % 1044,2 hPa 0,0 l/m 0,0 km/h (0 Bft) W-NW 292 -1,7 C -0,6 C 0,0 km/h (0 Bft)
20.01.2020 10:02 -0,8 C 0,9 C 1,0 C 92 % 1044,2 hPa 0,0 l/m 0,0 km/h (0 Bft) W-NW 292 -1,9 C -0,8 C 0,0 km/h (0 Bft)
20.01.2020 10:00 -0,8 C 0,9 C 1,0 C 92 % 1044,2 hPa 0,0 l/m 0,0 km/h (0 Bft) W-NW 292 -1,9 C -0,8 C 0,0 km/h (0 Bft)
20.01.2020 09:58 -0,8 C 0,9 C 1,0 C 92 % 1044,2 hPa 0,0 l/m 0,0 km/h (0 Bft) W-NW 292 -1,9 C -0,8 C 0,0 km/h (0 Bft)
20.01.2020 09:56 -0,6 C 0,9 C 1,0 C 92 % 1044,2 hPa 0,0 l/m 0,0 km/h (0 Bft) W-NW 292 -1,7 C -0,6 C 0,0 km/h (0 Bft)
20.01.2020 09:54 -0,8 C 0,9 C 1,0 C 92 % 1044,2 hPa 0,0 l/m 0,0 km/h (0 Bft) W-NW 292 -1,9 C -0,8 C 0,0 km/h (0 Bft)
20.01.2020 09:52 -0,8 C 0,9 C 1,0 C 92 % 1044,2 hPa 0,0 l/m 0,0 km/h (0 Bft) W-NW 292 -1,9 C -0,8 C 0,0 km/h (0 Bft)
20.01.2020 09:50 -0,8 C 0,9 C 1,0 C 92 % 1044,2 hPa 0,0 l/m 0,0 km/h (0 Bft) W-NW 292 -1,9 C -0,8 C 0,0 km/h (0 Bft)
20.01.2020 09:48 -0,8 C 0,9 C 1,0 C 92 % 1044,2 hPa 0,0 l/m 0,0 km/h (0 Bft) W-NW 292 -1,9 C -0,8 C 0,0 km/h (0 Bft)
20.01.2020 09:46 -0,9 C 0,8 C 1,0 C 92 % 1044,2 hPa 0,0 l/m 0,0 km/h (0 Bft) W-NW 292 -2,0 C -0,9 C 0,0 km/h (0 Bft)
20.01.2020 09:44 -0,9 C 0,8 C 1,0 C 92 % 1044,2 hPa 0,0 l/m 0,0 km/h (0 Bft) W-NW 292 -2,0 C -0,9 C 0,0 km/h (0 Bft)
20.01.2020 09:42 -0,8 C 0,8 C 1,0 C 92 % 1044,2 hPa 0,0 l/m 0,0 km/h (0 Bft) W-NW 292 -1,9 C -0,8 C 0,0 km/h (0 Bft)
20.01.2020 09:40 -0,8 C 0,8 C 1,0 C 92 % 1044,2 hPa 0,0 l/m 0,0 km/h (0 Bft) W-NW 292 -1,9 C -0,8 C 0,0 km/h (0 Bft)
20.01.2020 09:38 -0,8 C 0,8 C 1,0 C 92 % 1044,2 hPa 0,0 l/m 0,0 km/h (0 Bft) W-NW 292 -1,9 C -0,8 C 0,0 km/h (0 Bft)
20.01.2020 09:36 -0,9 C 0,8 C 1,0 C 92 % 1044,2 hPa 0,0 l/m 0,0 km/h (0 Bft) W-NW 292 -2,0 C -0,9 C 0,0 km/h (0 Bft)
20.01.2020 09:34 -0,9 C 0,8 C 1,0 C 92 % 1044,2 hPa 0,0 l/m 0,0 km/h (0 Bft) W-NW 292 -2,0 C -0,9 C 0,0 km/h (0 Bft)
20.01.2020 09:32 -0,9 C 0,8 C 1,0 C 92 % 1044,2 hPa 0,0 l/m 0,0 km/h (0 Bft) W-NW 292 -2,0 C -0,9 C 0,0 km/h (0 Bft)
20.01.2020 09:30 -0,9 C 0,8 C 1,0 C 92 % 1044,2 hPa 0,0 l/m 0,0 km/h (0 Bft) W-NW 292 -2,0 C -0,9 C 0,0 km/h (0 Bft)
20.01.2020 09:28 -0,9 C 0,8 C 1,0 C 92 % 1043,6 hPa 0,0 l/m 0,0 km/h (0 Bft) W-NW 292 -2,0 C -0,9 C 0,0 km/h (0 Bft)
20.01.2020 09:26 -0,9 C 0,8 C 1,0 C 92 % 1043,6 hPa 0,0 l/m 0,0 km/h (0 Bft) W-NW 292 -2,0 C -0,9 C 0,0 km/h (0 Bft)
20.01.2020 09:24 -0,9 C 0,8 C 1,0 C 92 % 1043,6 hPa 0,0 l/m 0,0 km/h (0 Bft) W-NW 292 -2,0 C -0,9 C 0,0 km/h (0 Bft)
20.01.2020 09:22 -0,9 C 0,8 C 1,0 C 92 % 1043,6 hPa 0,0 l/m 0,0 km/h (0 Bft) W-NW 292 -2,0 C -0,9 C 0,0 km/h (0 Bft)
20.01.2020 09:20 -0,9 C 0,8 C 1,0 C 92 % 1043,6 hPa 0,0 l/m 0,0 km/h (0 Bft) W-NW 292 -2,0 C -0,9 C 0,0 km/h (0 Bft)
20.01.2020 09:18 -1,0 C 0,8 C 1,0 C 92 % 1043,6 hPa 0,0 l/m 0,0 km/h (0 Bft) W-NW 292 -2,1 C -1,0 C 0,0 km/h (0 Bft)
20.01.2020 09:16 -1,0 C 0,8 C 1,0 C 92 % 1043,6 hPa 0,0 l/m 0,0 km/h (0 Bft) W-NW 292 -2,1 C -1,0 C 0,0 km/h (0 Bft)
20.01.2020 09:14 -1,0 C 0,8 C 1,0 C 92 % 1043,6 hPa 0,0 l/m 0,0 km/h (0 Bft) W-NW 292 -2,1 C -1,0 C 0,0 km/h (0 Bft)
20.01.2020 09:12 -1,0 C 0,8 C 1,0 C 92 % 1043,6 hPa 0,0 l/m 0,0 km/h (0 Bft) W-NW 292 -2,1 C -1,0 C 0,0 km/h (0 Bft)
20.01.2020 09:10 -1,0 C 0,8 C 1,0 C 92 % 1043,6 hPa 0,0 l/m 0,0 km/h (0 Bft) W-NW 292 -2,1 C -1,0 C 0,0 km/h (0 Bft)
20.01.2020 09:08 -1,0 C 0,8 C 1,0 C 92 % 1043,4 hPa 0,0 l/m 0,0 km/h (0 Bft) W-NW 292 -2,1 C -1,0 C 0,0 km/h (0 Bft)
20.01.2020 09:06 -1,0 C 0,8 C 1,0 C 92 % 1043,4 hPa 0,0 l/m 0,0 km/h (0 Bft) W-NW 292 -2,1 C -1,0 C 0,0 km/h (0 Bft)
20.01.2020 09:04 -1,0 C 0,8 C 1,0 C 92 % 1043,4 hPa 0,0 l/m 0,0 km/h (0 Bft) W-NW 292 -2,1 C -1,0 C 0,0 km/h (0 Bft)
20.01.2020 09:02 -1,0 C 0,8 C 1,0 C 92 % 1043,4 hPa 0,0 l/m 0,0 km/h (0 Bft) W-NW 292 -2,1 C -1,0 C 0,0 km/h (0 Bft)
20.01.2020 09:00 -1,0 C 0,7 C 1,0 C 92 % 1043,4 hPa 0,0 l/m 0,0 km/h (0 Bft) W-NW 292 -2,1 C -1,0 C 0,0 km/h (0 Bft)
20.01.2020 08:58 -1,0 C 0,7 C 1,0 C 92 % 1043,4 hPa 0,0 l/m 0,0 km/h (0 Bft) W-NW 292 -2,1 C -1,0 C 0,0 km/h (0 Bft)
20.01.2020 08:56 -1,0 C 0,7 C 1,0 C 92 % 1043,4 hPa 0,0 l/m 0,0 km/h (0 Bft) W-NW 292 -2,1 C -1,0 C 0,0 km/h (0 Bft)
20.01.2020 08:54 -1,0 C 0,7 C 1,0 C 92 % 1043,4 hPa 0,0 l/m 0,0 km/h (0 Bft) W-NW 292 -2,1 C -1,0 C 0,0 km/h (0 Bft)
20.01.2020 08:52 -1,0 C 0,7 C 1,0 C 92 % 1043,4 hPa 0,0 l/m 0,0 km/h (0 Bft) W-NW 292 -2,1 C -1,0 C 0,0 km/h (0 Bft)
20.01.2020 08:50 -1,0 C 0,7 C 1,0 C 92 % 1043,4 hPa 0,0 l/m 0,0 km/h (0 Bft) W-NW 292 -2,1 C -1,0 C 0,0 km/h (0 Bft)
20.01.2020 08:48 -1,1 C 0,7 C 1,0 C 92 % 1043,1 hPa 0,0 l/m 0,0 km/h (0 Bft) W-NW 292 -2,2 C -1,1 C 0,0 km/h (0 Bft)
20.01.2020 08:46 -1,1 C 0,7 C 1,0 C 92 % 1043,1 hPa 0,0 l/m 0,0 km/h (0 Bft) W-NW 292 -2,2 C -1,1 C 0,0 km/h (0 Bft)
20.01.2020 08:44 -1,1 C 0,6 C 1,0 C 92 % 1043,1 hPa 0,0 l/m 0,0 km/h (0 Bft) W-NW 292 -2,2 C -1,1 C 0,0 km/h (0 Bft)
20.01.2020 08:42 -1,1 C 0,6 C 1,0 C 92 % 1043,1 hPa 0,0 l/m 0,0 km/h (0 Bft) W-NW 292 -2,2 C -1,1 C 0,0 km/h (0 Bft)
20.01.2020 08:40 -1,1 C 0,6 C 1,0 C 92 % 1043,1 hPa 0,0 l/m 0,0 km/h (0 Bft) W-NW 292 -2,2 C -1,1 C 0,0 km/h (0 Bft)
20.01.2020 08:38 -1,3 C 0,6 C 1,0 C 92 % 1043,1 hPa 0,0 l/m 0,0 km/h (0 Bft) W-NW 292 -2,4 C -1,3 C 0,0 km/h (0 Bft)
20.01.2020 08:36 -1,1 C 0,6 C 1,0 C 92 % 1043,1 hPa 0,0 l/m 0,0 km/h (0 Bft) W-NW 292 -2,2 C -1,1 C 0,0 km/h (0 Bft)
20.01.2020 08:34 -1,1 C 0,6 C 1,0 C 92 % 1043,1 hPa 0,0 l/m 0,0 km/h (0 Bft) W-NW 292 -2,2 C -1,1 C 0,0 km/h (0 Bft)
20.01.2020 08:32 -1,1 C 0,6 C 1,0 C 92 % 1043,1 hPa 0,0 l/m 0,0 km/h (0 Bft) W-NW 292 -2,2 C -1,1 C 0,0 km/h (0 Bft)
20.01.2020 08:30 -1,3 C 0,6 C 1,0 C 92 % 1043,1 hPa 0,0 l/m 0,0 km/h (0 Bft) W-NW 292 -2,4 C -1,3 C 0,0 km/h (0 Bft)
20.01.2020 08:28 -1,3 C 0,6 C 1,0 C 92 % 1043,1 hPa 0,0 l/m 0,0 km/h (0 Bft) W-NW 292 -2,4 C -1,3 C 0,0 km/h (0 Bft)
20.01.2020 08:26 -1,3 C 0,6 C 1,0 C 92 % 1043,1 hPa 0,0 l/m 0,0 km/h (0 Bft) W-NW 292 -2,4 C -1,3 C 0,0 km/h (0 Bft)
20.01.2020 08:24 -1,3 C 0,6 C 1,0 C 92 % 1043,1 hPa 0,0 l/m 0,0 km/h (0 Bft) W-NW 292 -2,4 C -1,3 C 0,0 km/h (0 Bft)
20.01.2020 08:22 -1,1 C 0,6 C 1,0 C 92 % 1043,1 hPa 0,0 l/m 0,0 km/h (0 Bft) W-NW 292 -2,2 C -1,1 C 0,0 km/h (0 Bft)
20.01.2020 08:20 -1,1 C 0,6 C 1,0 C 92 % 1043,1 hPa 0,0 l/m 0,0 km/h (0 Bft) W-NW 292 -2,2 C -1,1 C 0,0 km/h (0 Bft)
20.01.2020 08:18 -1,1 C 0,6 C 1,0 C 92 % 1043,1 hPa 0,0 l/m 0,0 km/h (0 Bft) W-NW 292 -2,2 C -1,1 C 0,0 km/h (0 Bft)
20.01.2020 08:16 -1,1 C 0,6 C 1,0 C 92 % 1043,1 hPa 0,0 l/m 0,0 km/h (0 Bft) W-NW 292 -2,2 C -1,1 C 0,0 km/h (0 Bft)
20.01.2020 08:14 -1,1 C 0,6 C 1,0 C 92 % 1043,1 hPa 0,0 l/m 0,0 km/h (0 Bft) W-NW 292 -2,2 C -1,1 C 0,0 km/h (0 Bft)
20.01.2020 08:12 -1,1 C 0,6 C 1,0 C 92 % 1043,1 hPa 0,0 l/m 0,0 km/h (0 Bft) W-NW 292 -2,2 C -1,1 C 0,0 km/h (0 Bft)
20.01.2020 08:10 -1,3 C 0,6 C 1,0 C 92 % 1043,1 hPa 0,0 l/m 0,0 km/h (0 Bft) W-NW 292 -2,4 C -1,3 C 0,0 km/h (0 Bft)
20.01.2020 08:08 -1,3 C 0,6 C 1,0 C 92 % 1042,8 hPa 0,0 l/m 0,0 km/h (0 Bft) W-NW 292 -2,4 C -1,3 C 0,0 km/h (0 Bft)
20.01.2020 08:06 -1,1 C 0,6 C 1,0 C 92 % 1042,8 hPa 0,0 l/m 0,0 km/h (0 Bft) W-NW 292 -2,2 C -1,1 C 0,0 km/h (0 Bft)
20.01.2020 08:04 -1,1 C 0,6 C 1,0 C 92 % 1042,8 hPa 0,0 l/m 0,0 km/h (0 Bft) W-NW 292 -2,2 C -1,1 C 0,0 km/h (0 Bft)
20.01.2020 08:02 -1,3 C 0,6 C 1,0 C 92 % 1042,8 hPa 0,0 l/m 0,0 km/h (0 Bft) W-NW 292 -2,4 C -1,3 C 0,0 km/h (0 Bft)
20.01.2020 08:00 -1,3 C 0,6 C 1,0 C 92 % 1042,8 hPa 0,0 l/m 0,0 km/h (0 Bft) W-NW 292 -2,4 C -1,3 C 0,0 km/h (0 Bft)
20.01.2020 07:58 -1,3 C 0,6 C 1,0 C 92 % 1042,8 hPa 0,0 l/m 0,0 km/h (0 Bft) W-NW 292 -2,4 C -1,3 C 0,0 km/h (0 Bft)
20.01.2020 07:56 -1,3 C 0,6 C 1,0 C 92 % 1042,8 hPa 0,0 l/m 0,0 km/h (0 Bft) W-NW 292 -2,4 C -1,3 C 0,0 km/h (0 Bft)
20.01.2020 07:54 -1,3 C 0,6 C 1,0 C 92 % 1042,8 hPa 0,0 l/m 0,0 km/h (0 Bft) W-NW 292 -2,4 C -1,3 C 0,0 km/h (0 Bft)
20.01.2020 07:52 -1,3 C 0,6 C 1,0 C 92 % 1042,8 hPa 0,0 l/m 0,0 km/h (0 Bft) W-NW 292 -2,4 C -1,3 C 0,0 km/h (0 Bft)
20.01.2020 07:50 -1,3 C 0,6 C 1,0 C 92 % 1042,8 hPa 0,0 l/m 0,0 km/h (0 Bft) W-NW 292 -2,4 C -1,3 C 0,0 km/h (0 Bft)
20.01.2020 07:48 -1,3 C 0,6 C 1,0 C 92 % 1042,4 hPa 0,0 l/m 0,0 km/h (0 Bft) W-NW 292 -2,4 C -1,3 C 0,0 km/h (0 Bft)
20.01.2020 07:46 -1,3 C 0,5 C 1,0 C 92 % 1042,4 hPa 0,0 l/m 0,0 km/h (0 Bft) W-NW 292 -2,4 C -1,3 C 0,0 km/h (0 Bft)
20.01.2020 07:44 -1,1 C 0,5 C 1,0 C 92 % 1042,4 hPa 0,0 l/m 0,0 km/h (0 Bft) W-NW 292 -2,2 C -1,1 C 0,0 km/h (0 Bft)
20.01.2020 07:42 -1,1 C 0,5 C 1,0 C 92 % 1042,4 hPa 0,0 l/m 0,0 km/h (0 Bft) W-NW 292 -2,2 C -1,1 C 0,0 km/h (0 Bft)
20.01.2020 07:40 -1,3 C 0,5 C 1,0 C 92 % 1042,4 hPa 0,0 l/m 0,0 km/h (0 Bft) W-NW 292 -2,4 C -1,3 C 0,0 km/h (0 Bft)
20.01.2020 07:38 -1,3 C 0,5 C 1,0 C 92 % 1042,4 hPa 0,0 l/m 0,0 km/h (0 Bft) W-NW 292 -2,4 C -1,3 C 0,0 km/h (0 Bft)
20.01.2020 07:36 -1,3 C 0,5 C 1,0 C 92 % 1042,4 hPa 0,0 l/m 0,0 km/h (0 Bft) W-NW 292 -2,4 C -1,3 C 0,0 km/h (0 Bft)
20.01.2020 07:34 -1,3 C 0,5 C 1,0 C 92 % 1042,4 hPa 0,0 l/m 0,0 km/h (0 Bft) W-NW 292 -2,4 C -1,3 C 0,0 km/h (0 Bft)
20.01.2020 07:32 -1,3 C 0,5 C 1,0 C 92 % 1042,4 hPa 0,0 l/m 0,0 km/h (0 Bft) W-NW 292 -2,4 C -1,3 C 0,0 km/h (0 Bft)
20.01.2020 07:30 -1,3 C 0,5 C 1,0 C 92 % 1042,4 hPa 0,0 l/m 0,0 km/h (0 Bft) W-NW 292 -2,4 C -1,3 C 0,0 km/h (0 Bft)
20.01.2020 07:28 -1,3 C 0,5 C 1,0 C 92 % 1042,1 hPa 0,0 l/m 0,0 km/h (0 Bft) W-NW 292 -2,4 C -1,3 C 0,0 km/h (0 Bft)
20.01.2020 07:26 -1,3 C 0,5 C 1,0 C 92 % 1042,1 hPa 0,0 l/m 0,0 km/h (0 Bft) W-NW 292 -2,4 C -1,3 C 0,0 km/h (0 Bft)
20.01.2020 07:24 -1,3 C 0,5 C 1,0 C 92 % 1042,1 hPa 0,0 l/m 0,0 km/h (0 Bft) W-NW 292 -2,4 C -1,3 C 0,0 km/h (0 Bft)
20.01.2020 07:22 -1,3 C 0,5 C 1,0 C 92 % 1042,1 hPa 0,0 l/m 0,0 km/h (0 Bft) W-NW 292 -2,4 C -1,3 C 0,0 km/h (0 Bft)
20.01.2020 07:20 -1,3 C 0,5 C 1,0 C 92 % 1042,1 hPa 0,0 l/m 0,0 km/h (0 Bft) W-NW 292 -2,4 C -1,3 C 0,0 km/h (0 Bft)
20.01.2020 07:18 -1,3 C 0,5 C 1,0 C 92 % 1042,1 hPa 0,0 l/m 0,0 km/h (0 Bft) W-NW 292 -2,4 C -1,3 C 0,0 km/h (0 Bft)
20.01.2020 07:16 -1,3 C 0,5 C 1,0 C 92 % 1042,1 hPa 0,0 l/m 0,0 km/h (0 Bft) W-NW 292 -2,4 C -1,3 C 0,0 km/h (0 Bft)
20.01.2020 07:14 -1,3 C 0,5 C 1,0 C 92 % 1042,1 hPa 0,0 l/m 0,0 km/h (0 Bft) W-NW 292 -2,4 C -1,3 C 0,0 km/h (0 Bft)
20.01.2020 07:12 -1,3 C 0,5 C 1,0 C 92 % 1042,1 hPa 0,0 l/m 0,0 km/h (0 Bft) W-NW 292 -2,4 C -1,3 C 0,0 km/h (0 Bft)
20.01.2020 07:10 -1,3 C 0,5 C 1,0 C 92 % 1042,1 hPa 0,0 l/m 0,0 km/h (0 Bft) W-NW 292 -2,4 C -1,3 C 0,0 km/h (0 Bft)
20.01.2020 07:08 -1,3 C 0,5 C 1,0 C 92 % 1041,9 hPa 0,2 l/m 0,0 km/h (0 Bft) W-NW 292 -2,4 C -1,3 C 0,0 km/h (0 Bft)
20.01.2020 07:06 -1,3 C 0,5 C 1,0 C 92 % 1041,9 hPa 0,0 l/m 0,0 km/h (0 Bft) W-NW 292 -2,4 C -1,3 C 0,0 km/h (0 Bft)
20.01.2020 07:04 -1,4 C 0,5 C 1,0 C 92 % 1041,9 hPa 0,0 l/m 0,0 km/h (0 Bft) W-NW 292 -2,5 C -1,4 C 0,0 km/h (0 Bft)
20.01.2020 07:02 -1,3 C 0,5 C 1,0 C 92 % 1041,9 hPa 0,2 l/m 0,0 km/h (0 Bft) W-NW 292 -2,4 C -1,3 C 0,0 km/h (0 Bft)
20.01.2020 07:00 -1,3 C 0,5 C 1,0 C 92 % 1041,9 hPa 0,0 l/m 0,0 km/h (0 Bft) W-NW 292 -2,4 C -1,3 C 0,0 km/h (0 Bft)
20.01.2020 06:58 -1,3 C 0,5 C 1,0 C 92 % 1041,9 hPa 0,0 l/m 0,0 km/h (0 Bft) W-NW 292 -2,4 C -1,3 C 0,0 km/h (0 Bft)
20.01.2020 06:56 -1,3 C 0,5 C 1,0 C 92 % 1041,9 hPa 0,0 l/m 0,0 km/h (0 Bft) W-NW 292 -2,4 C -1,3 C 0,0 km/h (0 Bft)
20.01.2020 06:54 -1,3 C 0,5 C 1,0 C 92 % 1041,9 hPa 0,0 l/m 0,0 km/h (0 Bft) W-NW 292 -2,4 C -1,3 C 0,0 km/h (0 Bft)
20.01.2020 06:52 -1,3 C 0,5 C 1,0 C 92 % 1041,9 hPa 0,2 l/m 0,0 km/h (0 Bft) W-NW 292 -2,4 C -1,3 C 0,0 km/h (0 Bft)
20.01.2020 06:50 -1,3 C 0,5 C 1,0 C 92 % 1041,9 hPa 0,2 l/m 0,0 km/h (0 Bft) W-NW 292 -2,4 C -1,3 C 0,0 km/h (0 Bft)
20.01.2020 06:48 -1,3 C 0,5 C 1,0 C 92 % 1041,4 hPa 0,0 l/m 0,0 km/h (0 Bft) W-NW 292 -2,4 C -1,3 C 0,0 km/h (0 Bft)
20.01.2020 06:46 -1,1 C 0,5 C 1,0 C 92 % 1041,4 hPa 0,0 l/m 0,0 km/h (0 Bft) W-NW 292 -2,2 C -1,1 C 0,0 km/h (0 Bft)
20.01.2020 06:44 -1,1 C 0,5 C 1,0 C 92 % 1041,4 hPa 0,0 l/m 0,0 km/h (0 Bft) W-NW 292 -2,2 C -1,1 C 0,0 km/h (0 Bft)
20.01.2020 06:42 -1,1 C 0,5 C 1,0 C 92 % 1041,4 hPa 0,0 l/m 0,0 km/h (0 Bft) W-NW 292 -2,2 C -1,1 C 0,0 km/h (0 Bft)
20.01.2020 06:40 -1,1 C 0,5 C 1,0 C 92 % 1041,4 hPa 0,2 l/m 0,0 km/h (0 Bft) W-NW 292 -2,2 C -1,1 C 0,0 km/h (0 Bft)
20.01.2020 06:38 -1,1 C 0,5 C 1,0 C 92 % 1041,4 hPa 0,0 l/m 0,0 km/h (0 Bft) W-NW 292 -2,2 C -1,1 C 0,0 km/h (0 Bft)
20.01.2020 06:36 -1,3 C 0,5 C 1,0 C 92 % 1041,4 hPa 0,2 l/m 0,0 km/h (0 Bft) W-NW 292 -2,4 C -1,3 C 0,0 km/h (0 Bft)
20.01.2020 06:34 -1,1 C 0,5 C 1,0 C 92 % 1041,4 hPa 0,2 l/m 0,0 km/h (0 Bft) W-NW 292 -2,2 C -1,1 C 0,0 km/h (0 Bft)
20.01.2020 06:32 -1,3 C 0,5 C 1,0 C 92 % 1041,4 hPa 0,0 l/m 0,0 km/h (0 Bft) W-NW 292 -2,4 C -1,3 C 0,0 km/h (0 Bft)
20.01.2020 06:30 -1,3 C 0,5 C 1,0 C 92 % 1041,4 hPa 0,2 l/m 0,0 km/h (0 Bft) W-NW 292 -2,4 C -1,3 C 0,0 km/h (0 Bft)
20.01.2020 06:28 -1,3 C 0,5 C 1,0 C 92 % 1041,1 hPa 0,2 l/m 0,0 km/h (0 Bft) W-NW 292 -2,4 C -1,3 C 0,0 km/h (0 Bft)
20.01.2020 06:26 -1,3 C 0,5 C 1,0 C 92 % 1041,1 hPa 0,0 l/m 0,0 km/h (0 Bft) W-NW 292 -2,4 C -1,3 C 0,0 km/h (0 Bft)
20.01.2020 06:24 -1,3 C 0,5 C 1,0 C 92 % 1041,1 hPa 0,3 l/m 0,0 km/h (0 Bft) W-NW 292 -2,4 C -1,3 C 0,0 km/h (0 Bft)
20.01.2020 06:22 -1,3 C 0,5 C 1,0 C 92 % 1041,1 hPa 0,3 l/m 0,0 km/h (0 Bft) W-NW 292 -2,4 C -1,3 C 0,0 km/h (0 Bft)
20.01.2020 06:20 -1,3 C 0,5 C 1,0 C 92 % 1041,1 hPa 0,0 l/m 0,0 km/h (0 Bft) W-NW 292 -2,4 C -1,3 C 0,0 km/h (0 Bft)
20.01.2020 06:18 -1,3 C 0,5 C 1,0 C 92 % 1041,1 hPa 0,3 l/m 0,0 km/h (0 Bft) W-NW 292 -2,4 C -1,3 C 0,0 km/h (0 Bft)
20.01.2020 06:16 -1,3 C 0,5 C 1,0 C 92 % 1041,1 hPa 0,5 l/m 0,0 km/h (0 Bft) W-NW 292 -2,4 C -1,3 C 0,0 km/h (0 Bft)
20.01.2020 06:14 -1,3 C 0,5 C 1,0 C 92 % 1041,1 hPa 0,0 l/m 0,0 km/h (0 Bft) W-NW 292 -2,4 C -1,3 C 0,0 km/h (0 Bft)
20.01.2020 06:12 -1,3 C 0,5 C 1,0 C 92 % 1041,1 hPa 0,7 l/m 0,0 km/h (0 Bft) W-NW 292 -2,4 C -1,3 C 0,0 km/h (0 Bft)
20.01.2020 06:10 -1,3 C 0,6 C 1,0 C 92 % 1041,1 hPa 0,0 l/m 0,0 km/h (0 Bft) W-NW 292 -2,4 C -1,3 C 0,0 km/h (0 Bft)
20.01.2020 06:08 -1,3 C 0,6 C 1,0 C 92 % 1040,5 hPa 0,0 l/m 0,0 km/h (0 Bft) W-NW 292 -2,4 C -1,3 C 0,0 km/h (0 Bft)
20.01.2020 06:06 -1,3 C 0,6 C 1,0 C 92 % 1040,5 hPa 0,0 l/m 0,0 km/h (0 Bft) W-NW 292 -2,4 C -1,3 C 0,0 km/h (0 Bft)
20.01.2020 06:04 -1,3 C 0,6 C 1,0 C 92 % 1040,5 hPa 0,0 l/m 0,0 km/h (0 Bft) W-NW 292 -2,4 C -1,3 C 0,0 km/h (0 Bft)
20.01.2020 06:02 -1,3 C 0,6 C 1,0 C 92 % 1040,5 hPa 0,0 l/m 0,0 km/h (0 Bft) W-NW 292 -2,4 C -1,3 C 0,0 km/h (0 Bft)
20.01.2020 06:00 -1,3 C 0,6 C 1,0 C 92 % 1040,5 hPa 0,2 l/m 0,0 km/h (0 Bft) W-NW 292 -2,4 C -1,3 C 0,0 km/h (0 Bft)
20.01.2020 05:58 -1,3 C 0,5 C 1,0 C 92 % 1040,5 hPa 0,3 l/m 0,0 km/h (0 Bft) W-NW 292 -2,4 C -1,3 C 0,0 km/h (0 Bft)
20.01.2020 05:56 -1,3 C 0,5 C 1,0 C 92 % 1040,5 hPa 0,0 l/m 0,0 km/h (0 Bft) W-NW 292 -2,4 C -1,3 C 0,0 km/h (0 Bft)
20.01.2020 05:54 -1,3 C 0,5 C 1,0 C 92 % 1040,5 hPa 0,2 l/m 0,0 km/h (0 Bft) W-NW 292 -2,4 C -1,3 C 0,0 km/h (0 Bft)
20.01.2020 05:52 -1,3 C 0,5 C 1,0 C 92 % 1040,5 hPa 0,0 l/m 0,0 km/h (0 Bft) W-NW 292 -2,4 C -1,3 C 0,0 km/h (0 Bft)
20.01.2020 05:50 -1,3 C 0,5 C 1,0 C 92 % 1040,5 hPa 0,0 l/m 0,0 km/h (0 Bft) W-NW 292 -2,4 C -1,3 C 0,0 km/h (0 Bft)
20.01.2020 05:48 -1,1 C 0,6 C 1,0 C 92 % 1040,4 hPa 0,2 l/m 0,0 km/h (0 Bft) W-NW 292 -2,2 C -1,1 C 0,0 km/h (0 Bft)
20.01.2020 05:46 -1,1 C 0,6 C 1,0 C 92 % 1040,4 hPa 0,3 l/m 0,0 km/h (0 Bft) W-NW 292 -2,2 C -1,1 C 0,0 km/h (0 Bft)
20.01.2020 05:44 -1,1 C 0,6 C 1,0 C 92 % 1040,4 hPa 0,0 l/m 0,0 km/h (0 Bft) W-NW 292 -2,2 C -1,1 C 0,0 km/h (0 Bft)
20.01.2020 05:42 -1,0 C 0,6 C 1,0 C 92 % 1040,4 hPa 0,0 l/m 0,0 km/h (0 Bft) W-NW 292 -2,1 C -1,0 C 0,0 km/h (0 Bft)
20.01.2020 05:40 -1,1 C 0,6 C 1,0 C 92 % 1040,4 hPa 0,0 l/m 0,0 km/h (0 Bft) W-NW 292 -2,2 C -1,1 C 0,0 km/h (0 Bft)
20.01.2020 05:38 -1,1 C 0,6 C 1,0 C 92 % 1040,4 hPa 0,0 l/m 0,0 km/h (0 Bft) W-NW 292 -2,2 C -1,1 C 0,0 km/h (0 Bft)
20.01.2020 05:36 -1,1 C 0,6 C 1,0 C 92 % 1040,4 hPa 0,0 l/m 0,0 km/h (0 Bft) W-NW 292 -2,2 C -1,1 C 0,0 km/h (0 Bft)
20.01.2020 05:34 -1,3 C 0,6 C 1,0 C 92 % 1040,4 hPa 0,0 l/m 0,0 km/h (0 Bft) W-NW 292 -2,4 C -1,3 C 0,0 km/h (0 Bft)
20.01.2020 05:32 -1,3 C 0,6 C 1,0 C 92 % 1040,4 hPa 0,0 l/m 0,0 km/h (0 Bft) W-NW 292 -2,4 C -1,3 C 0,0 km/h (0 Bft)
20.01.2020 05:30 -1,1 C 0,6 C 1,0 C 92 % 1040,4 hPa 0,0 l/m 0,0 km/h (0 Bft) W-NW 292 -2,2 C -1,1 C 0,0 km/h (0 Bft)
20.01.2020 05:28 -1,1 C 0,6 C 1,0 C 92 % 1040,2 hPa 0,0 l/m 0,0 km/h (0 Bft) W-NW 292 -2,2 C -1,1 C 0,0 km/h (0 Bft)
20.01.2020 05:26 -1,1 C 0,6 C 1,0 C 92 % 1040,2 hPa 0,0 l/m 0,0 km/h (0 Bft) W-NW 292 -2,2 C -1,1 C 0,0 km/h (0 Bft)
20.01.2020 05:24 -1,1 C 0,6 C 1,0 C 92 % 1040,2 hPa 0,0 l/m 0,0 km/h (0 Bft) W-NW 292 -2,2 C -1,1 C 0,0 km/h (0 Bft)
20.01.2020 05:22 -1,1 C 0,6 C 1,0 C 92 % 1040,2 hPa 0,0 l/m 0,0 km/h (0 Bft) W-NW 292 -2,2 C -1,1 C 0,0 km/h (0 Bft)
20.01.2020 05:20 -1,1 C 0,6 C 1,0 C 92 % 1040,2 hPa 0,0 l/m 0,0 km/h (0 Bft) W-NW 292 -2,2 C -1,1 C 0,0 km/h (0 Bft)
20.01.2020 05:18 -1,2 C 0,6 C 1,0 C 92 % 1040,2 hPa 0,0 l/m 0,0 km/h (0 Bft) W-NW 292 -2,3 C -1,2 C 0,0 km/h (0 Bft)
20.01.2020 05:16 -1,2 C 0,6 C 1,0 C 92 % 1040,2 hPa 0,0 l/m 0,0 km/h (0 Bft) W-NW 292 -2,3 C -1,2 C 0,0 km/h (0 Bft)
20.01.2020 05:14 -1,2 C 0,6 C 1,0 C 92 % 1040,2 hPa 0,0 l/m 0,0 km/h (0 Bft) W-NW 292 -2,3 C -1,2 C 0,0 km/h (0 Bft)
20.01.2020 05:12 -1,2 C 0,6 C 1,0 C 92 % 1040,2 hPa 0,0 l/m 0,0 km/h (0 Bft) W-NW 292 -2,3 C -1,2 C 0,0 km/h (0 Bft)
20.01.2020 05:10 -1,0 C 0,6 C 1,0 C 92 % 1040,2 hPa 0,0 l/m 0,0 km/h (0 Bft) W-NW 292 -2,1 C -1,0 C 0,0 km/h (0 Bft)
20.01.2020 05:08 -1,0 C 0,6 C 1,0 C 92 % 1040,2 hPa 0,0 l/m 0,0 km/h (0 Bft) W-NW 292 -2,1 C -1,0 C 0,0 km/h (0 Bft)
20.01.2020 05:06 -1,0 C 0,6 C 1,0 C 92 % 1040,2 hPa 0,0 l/m 0,0 km/h (0 Bft) W-NW 292 -2,1 C -1,0 C 0,0 km/h (0 Bft)
20.01.2020 05:04 -1,0 C 0,6 C 1,0 C 92 % 1040,2 hPa 0,0 l/m 0,0 km/h (0 Bft) W-NW 292 -2,1 C -1,0 C 0,0 km/h (0 Bft)
20.01.2020 05:02 -1,0 C 0,6 C 1,0 C 92 % 1040,2 hPa 0,0 l/m 0,0 km/h (0 Bft) W-NW 292 -2,1 C -1,0 C 0,0 km/h (0 Bft)
20.01.2020 05:00 -1,0 C 0,6 C 1,0 C 92 % 1040,2 hPa 0,0 l/m 0,0 km/h (0 Bft) W-NW 292 -2,1 C -1,0 C 0,0 km/h (0 Bft)
20.01.2020 04:58 -1,0 C 0,6 C 1,0 C 92 % 1040,2 hPa 0,0 l/m 0,0 km/h (0 Bft) W-NW 292 -2,1 C -1,0 C 0,0 km/h (0 Bft)
20.01.2020 04:56 -1,1 C 0,6 C 1,0 C 92 % 1040,2 hPa 0,0 l/m 0,0 km/h (0 Bft) W-NW 292 -2,2 C -1,1 C 0,0 km/h (0 Bft)
20.01.2020 04:54 -1,1 C 0,6 C 1,0 C 92 % 1040,2 hPa 0,0 l/m 0,0 km/h (0 Bft) W-NW 292 -2,2 C -1,1 C 0,0 km/h (0 Bft)
20.01.2020 04:52 -1,1 C 0,6 C 1,0 C 92 % 1040,2 hPa 0,0 l/m 0,0 km/h (0 Bft) W-NW 292 -2,2 C -1,1 C 0,0 km/h (0 Bft)
20.01.2020 04:50 -1,1 C 0,6 C 1,0 C 92 % 1040,2 hPa 0,0 l/m 0,0 km/h (0 Bft) W-NW 292 -2,2 C -1,1 C 0,0 km/h (0 Bft)
20.01.2020 04:48 -1,1 C 0,6 C 1,0 C 92 % 1040,1 hPa 0,0 l/m 0,0 km/h (0 Bft) W-NW 292 -2,2 C -1,1 C 0,0 km/h (0 Bft)
20.01.2020 04:46 -1,1 C 0,6 C 1,0 C 92 % 1040,1 hPa 0,0 l/m 0,0 km/h (0 Bft) W-NW 292 -2,2 C -1,1 C 0,0 km/h (0 Bft)
20.01.2020 04:44 -1,1 C 0,6 C 1,0 C 92 % 1040,1 hPa 0,0 l/m 0,0 km/h (0 Bft) W-NW 292 -2,2 C -1,1 C 0,0 km/h (0 Bft)
20.01.2020 04:42 -1,3 C 0,6 C 1,0 C 92 % 1040,1 hPa 0,0 l/m 0,0 km/h (0 Bft) W-NW 292 -2,4 C -1,3 C 0,0 km/h (0 Bft)
20.01.2020 04:40 -1,3 C 0,6 C 1,0 C 92 % 1040,1 hPa 0,0 l/m 0,0 km/h (0 Bft) W-NW 292 -2,4 C -1,3 C 0,0 km/h (0 Bft)
20.01.2020 04:38 -1,3 C 0,6 C 1,0 C 92 % 1040,1 hPa 0,0 l/m 0,0 km/h (0 Bft) W-NW 292 -2,4 C -1,3 C 0,0 km/h (0 Bft)
20.01.2020 04:36 -1,3 C 0,6 C 1,0 C 92 % 1040,1 hPa 0,0 l/m 0,0 km/h (0 Bft) W-NW 292 -2,4 C -1,3 C 0,0 km/h (0 Bft)
20.01.2020 04:34 -1,3 C 0,6 C 1,0 C 92 % 1040,1 hPa 0,0 l/m 0,0 km/h (0 Bft) W-NW 292 -2,4 C -1,3 C 0,0 km/h (0 Bft)
20.01.2020 04:32 -1,3 C 0,6 C 1,0 C 92 % 1040,1 hPa 0,0 l/m 0,0 km/h (0 Bft) W-NW 292 -2,4 C -1,3 C 0,0 km/h (0 Bft)
20.01.2020 04:30 -1,3 C 0,6 C 1,0 C 92 % 1040,1 hPa 0,0 l/m 0,0 km/h (0 Bft) W-NW 292 -2,4 C -1,3 C 0,0 km/h (0 Bft)
20.01.2020 04:28 -1,3 C 0,6 C 1,0 C 92 % 1039,8 hPa 0,0 l/m 0,0 km/h (0 Bft) W-NW 292 -2,4 C -1,3 C 0,0 km/h (0 Bft)
20.01.2020 04:26 -1,3 C 0,6 C 1,0 C 92 % 1039,8 hPa 0,0 l/m 0,0 km/h (0 Bft) W-NW 292 -2,4 C -1,3 C 0,0 km/h (0 Bft)
20.01.2020 04:24 -1,4 C 0,6 C 1,0 C 92 % 1039,8 hPa 0,0 l/m 0,0 km/h (0 Bft) W-NW 292 -2,5 C -1,4 C 0,0 km/h (0 Bft)
20.01.2020 04:22 -1,3 C 0,6 C 1,0 C 92 % 1039,8 hPa 0,0 l/m 0,0 km/h (0 Bft) W-NW 292 -2,4 C -1,3 C 0,0 km/h (0 Bft)
20.01.2020 04:20 -1,3 C 0,6 C 1,0 C 92 % 1039,8 hPa 0,0 l/m 0,0 km/h (0 Bft) W-NW 292 -2,4 C -1,3 C 0,0 km/h (0 Bft)
20.01.2020 04:18 -1,3 C 0,6 C 1,0 C 92 % 1039,8 hPa 0,0 l/m 0,0 km/h (0 Bft) W-NW 292 -2,4 C -1,3 C 0,0 km/h (0 Bft)
20.01.2020 04:16 -1,3 C 0,6 C 1,0 C 92 % 1039,8 hPa 0,0 l/m 0,0 km/h (0 Bft) W-NW 292 -2,4 C -1,3 C 0,0 km/h (0 Bft)
20.01.2020 04:14 -1,3 C 0,6 C 1,0 C 92 % 1039,8 hPa 0,0 l/m 0,0 km/h (0 Bft) W-NW 292 -2,4 C -1,3 C 0,0 km/h (0 Bft)
20.01.2020 04:12 -1,3 C 0,6 C 1,0 C 92 % 1039,8 hPa 0,0 l/m 0,0 km/h (0 Bft) W-NW 292 -2,4 C -1,3 C 0,0 km/h (0 Bft)
20.01.2020 04:10 -1,3 C 0,6 C 1,0 C 92 % 1039,8 hPa 0,0 l/m 0,0 km/h (0 Bft) W-NW 292 -2,4 C -1,3 C 0,0 km/h (0 Bft)
20.01.2020 04:08 -1,3 C 0,6 C 1,0 C 92 % 1039,8 hPa 0,0 l/m 0,0 km/h (0 Bft) W-NW 292 -2,4 C -1,3 C 0,0 km/h (0 Bft)
20.01.2020 04:06 -1,3 C 0,6 C 1,0 C 92 % 1039,8 hPa 0,0 l/m 0,0 km/h (0 Bft) W-NW 292 -2,4 C -1,3 C 0,0 km/h (0 Bft)
20.01.2020 04:04 -1,3 C 0,6 C 1,0 C 92 % 1039,8 hPa 0,0 l/m 0,0 km/h (0 Bft) W-NW 292 -2,4 C -1,3 C 0,0 km/h (0 Bft)
20.01.2020 04:02 -1,3 C 0,6 C 1,0 C 92 % 1039,8 hPa 0,0 l/m 0,0 km/h (0 Bft) W-NW 292 -2,4 C -1,3 C 0,0 km/h (0 Bft)
20.01.2020 04:00 -1,1 C 0,6 C 1,0 C 92 % 1039,8 hPa 0,0 l/m 0,0 km/h (0 Bft) W-NW 292 -2,2 C -1,1 C 0,0 km/h (0 Bft)
20.01.2020 03:58 -1,1 C 0,6 C 1,0 C 92 % 1039,8 hPa 0,0 l/m 0,0 km/h (0 Bft) W-NW 292 -2,2 C -1,1 C 0,0 km/h (0 Bft)
20.01.2020 03:56 -1,1 C 0,6 C 1,0 C 92 % 1039,8 hPa 0,0 l/m 0,0 km/h (0 Bft) W-NW 292 -2,2 C -1,1 C 0,0 km/h (0 Bft)
20.01.2020 03:54 -1,1 C 0,6 C 1,0 C 92 % 1039,8 hPa 0,0 l/m 0,0 km/h (0 Bft) W-NW 292 -2,2 C -1,1 C 0,0 km/h (0 Bft)
20.01.2020 03:52 -1,1 C 0,6 C 1,0 C 92 % 1039,8 hPa 0,0 l/m 0,0 km/h (0 Bft) W-NW 292 -2,2 C -1,1 C 0,0 km/h (0 Bft)
20.01.2020 03:50 -1,1 C 0,6 C 1,0 C 92 % 1039,8 hPa 0,0 l/m 0,0 km/h (0 Bft) W-NW 292 -2,2 C -1,1 C 0,0 km/h (0 Bft)
20.01.2020 03:48 -1,1 C 0,6 C 1,0 C 92 % 1040,0 hPa 0,0 l/m 0,0 km/h (0 Bft) W-NW 292 -2,2 C -1,1 C 0,0 km/h (0 Bft)
20.01.2020 03:46 -1,1 C 0,6 C 1,0 C 92 % 1040,0 hPa 0,0 l/m 0,0 km/h (0 Bft) W-NW 292 -2,2 C -1,1 C 0,0 km/h (0 Bft)
20.01.2020 03:44 -1,3 C 0,6 C 1,0 C 92 % 1040,0 hPa 0,0 l/m 0,0 km/h (0 Bft) W-NW 292 -2,4 C -1,3 C 0,0 km/h (0 Bft)
20.01.2020 03:42 -1,3 C 0,6 C 1,0 C 92 % 1040,0 hPa 0,0 l/m 0,0 km/h (0 Bft) W-NW 292 -2,4 C -1,3 C 0,0 km/h (0 Bft)
20.01.2020 03:40 -1,3 C 0,6 C 1,0 C 92 % 1040,0 hPa 0,0 l/m 0,0 km/h (0 Bft) W-NW 292 -2,4 C -1,3 C 0,0 km/h (0 Bft)
20.01.2020 03:38 -1,1 C 0,6 C 1,0 C 92 % 1040,0 hPa 0,0 l/m 0,0 km/h (0 Bft) W-NW 292 -2,2 C -1,1 C 0,0 km/h (0 Bft)
20.01.2020 03:36 -1,1 C 0,6 C 1,0 C 92 % 1040,0 hPa 0,0 l/m 0,0 km/h (0 Bft) W-NW 292 -2,2 C -1,1 C 0,0 km/h (0 Bft)
20.01.2020 03:34 -1,1 C 0,6 C 1,0 C 92 % 1040,0 hPa 0,0 l/m 0,0 km/h (0 Bft) W-NW 292 -2,2 C -1,1 C 0,0 km/h (0 Bft)
20.01.2020 03:32 -1,1 C 0,6 C 1,0 C 92 % 1040,0 hPa 0,0 l/m 0,0 km/h (0 Bft) W-NW 292 -2,2 C -1,1 C 0,0 km/h (0 Bft)
20.01.2020 03:30 -1,1 C 0,6 C 1,0 C 92 % 1040,0 hPa 0,0 l/m 0,0 km/h (0 Bft) W-NW 292 -2,2 C -1,1 C 0,0 km/h (0 Bft)
20.01.2020 03:28 -1,1 C 0,6 C 1,0 C 92 % 1039,8 hPa 0,0 l/m 0,0 km/h (0 Bft) W-NW 292 -2,2 C -1,1 C 0,0 km/h (0 Bft)
20.01.2020 03:26 -1,1 C 0,6 C 1,0 C 92 % 1039,8 hPa 0,0 l/m 0,0 km/h (0 Bft) W-NW 292 -2,2 C -1,1 C 0,0 km/h (0 Bft)
20.01.2020 03:24 -1,3 C 0,6 C 1,0 C 92 % 1039,8 hPa 0,0 l/m 0,0 km/h (0 Bft) W-NW 292 -2,4 C -1,3 C 0,0 km/h (0 Bft)
20.01.2020 03:22 -1,1 C 0,6 C 1,0 C 92 % 1039,8 hPa 0,0 l/m 0,0 km/h (0 Bft) W-NW 292 -2,2 C -1,1 C 0,0 km/h (0 Bft)
20.01.2020 03:20 -1,1 C 0,6 C 1,0 C 92 % 1039,8 hPa 0,0 l/m 0,0 km/h (0 Bft) W-NW 292 -2,2 C -1,1 C 0,0 km/h (0 Bft)
20.01.2020 03:18 -1,1 C 0,6 C 1,0 C 92 % 1039,8 hPa 0,0 l/m 0,0 km/h (0 Bft) W-NW 292 -2,2 C -1,1 C 0,0 km/h (0 Bft)
20.01.2020 03:16 -1,1 C 0,6 C 1,0 C 92 % 1039,8 hPa 0,0 l/m 0,0 km/h (0 Bft) W-NW 292 -2,2 C -1,1 C 0,0 km/h (0 Bft)
20.01.2020 03:14 -1,1 C 0,6 C 1,0 C 92 % 1039,8 hPa 0,0 l/m 0,0 km/h (0 Bft) W-NW 292 -2,2 C -1,1 C 0,0 km/h (0 Bft)
20.01.2020 03:12 -1,3 C 0,6 C 1,0 C 92 % 1039,8 hPa 0,0 l/m 0,0 km/h (0 Bft) W-NW 292 -2,4 C -1,3 C 0,0 km/h (0 Bft)
20.01.2020 03:10 -1,1 C 0,6 C 1,0 C 92 % 1039,8 hPa 0,0 l/m 0,0 km/h (0 Bft) W-NW 292 -2,2 C -1,1 C 0,0 km/h (0 Bft)
20.01.2020 03:08 -1,1 C 0,6 C 1,0 C 92 % 1039,7 hPa 0,0 l/m 0,0 km/h (0 Bft) W-NW 292 -2,2 C -1,1 C 0,0 km/h (0 Bft)
20.01.2020 03:06 -1,1 C 0,6 C 1,0 C 92 % 1039,7 hPa 0,0 l/m 0,0 km/h (0 Bft) W-NW 292 -2,2 C -1,1 C 0,0 km/h (0 Bft)
20.01.2020 03:04 -1,1 C 0,6 C 1,0 C 92 % 1039,7 hPa 0,0 l/m 0,0 km/h (0 Bft) W-NW 292 -2,2 C -1,1 C 0,0 km/h (0 Bft)
20.01.2020 03:02 -1,1 C 0,6 C 1,0 C 92 % 1039,7 hPa 0,0 l/m 0,0 km/h (0 Bft) W-NW 292 -2,2 C -1,1 C 0,0 km/h (0 Bft)
20.01.2020 03:00 -1,3 C 0,6 C 1,0 C 92 % 1039,7 hPa 0,0 l/m 0,0 km/h (0 Bft) W-NW 292 -2,4 C -1,3 C 0,0 km/h (0 Bft)
20.01.2020 02:58 -1,3 C 0,6 C 1,0 C 92 % 1039,7 hPa 0,0 l/m 0,0 km/h (0 Bft) W-NW 292 -2,4 C -1,3 C 0,0 km/h (0 Bft)
20.01.2020 02:56 -1,3 C 0,6 C 1,0 C 92 % 1039,7 hPa 0,0 l/m 0,0 km/h (0 Bft) W-NW 292 -2,4 C -1,3 C 0,0 km/h (0 Bft)
20.01.2020 02:54 -1,1 C 0,6 C 1,0 C 92 % 1039,7 hPa 0,0 l/m 0,0 km/h (0 Bft) W-NW 292 -2,2 C -1,1 C 0,0 km/h (0 Bft)
20.01.2020 02:52 -1,1 C 0,6 C 1,0 C 92 % 1039,7 hPa 0,0 l/m 0,0 km/h (0 Bft) W-NW 292 -2,2 C -1,1 C 0,0 km/h (0 Bft)
20.01.2020 02:50 -1,1 C 0,6 C 1,0 C 92 % 1039,7 hPa 0,0 l/m 0,0 km/h (0 Bft) W-NW 292 -2,2 C -1,1 C 0,0 km/h (0 Bft)
20.01.2020 02:48 -1,1 C 0,6 C 1,0 C 92 % 1039,8 hPa 0,0 l/m 0,0 km/h (0 Bft) W-NW 292 -2,2 C -1,1 C 0,0 km/h (0 Bft)
20.01.2020 02:46 -1,1 C 0,6 C 1,0 C 92 % 1039,8 hPa 0,0 l/m 0,0 km/h (0 Bft) W-NW 292 -2,2 C -1,1 C 0,0 km/h (0 Bft)
20.01.2020 02:44 -1,1 C 0,6 C 1,0 C 92 % 1039,8 hPa 0,0 l/m 0,0 km/h (0 Bft) W-NW 292 -2,2 C -1,1 C 0,0 km/h (0 Bft)
20.01.2020 02:42 -1,1 C 0,6 C 1,0 C 92 % 1039,8 hPa 0,0 l/m 0,0 km/h (0 Bft) W-NW 292 -2,2 C -1,1 C 0,0 km/h (0 Bft)
20.01.2020 02:40 -1,1 C 0,6 C 1,0 C 92 % 1039,8 hPa 0,0 l/m 0,0 km/h (0 Bft) W-NW 292 -2,2 C -1,1 C 0,0 km/h (0 Bft)
20.01.2020 02:38 -1,1 C 0,6 C 1,0 C 92 % 1039,8 hPa 0,0 l/m 0,0 km/h (0 Bft) W-NW 292 -2,2 C -1,1 C 0,0 km/h (0 Bft)
20.01.2020 02:36 -1,1 C 0,6 C 1,0 C 92 % 1039,8 hPa 0,0 l/m 0,0 km/h (0 Bft) W-NW 292 -2,2 C -1,1 C 0,0 km/h (0 Bft)
20.01.2020 02:34 -1,1 C 0,6 C 1,0 C 92 % 1039,8 hPa 0,0 l/m 0,0 km/h (0 Bft) W-NW 292 -2,2 C -1,1 C 0,0 km/h (0 Bft)
20.01.2020 02:32 -1,1 C 0,6 C 1,0 C 92 % 1039,8 hPa 0,0 l/m 0,0 km/h (0 Bft) W-NW 292 -2,2 C -1,1 C 0,0 km/h (0 Bft)
20.01.2020 02:30 -1,1 C 0,6 C 1,0 C 92 % 1039,8 hPa 0,0 l/m 0,0 km/h (0 Bft) W-NW 292 -2,2 C -1,1 C 0,0 km/h (0 Bft)
20.01.2020 02:28 -1,1 C 0,6 C 1,0 C 92 % 1039,8 hPa 0,0 l/m 0,0 km/h (0 Bft) W-NW 292 -2,2 C -1,1 C 0,0 km/h (0 Bft)
20.01.2020 02:26 -1,1 C 0,6 C 1,0 C 92 % 1039,8 hPa 0,0 l/m 0,0 km/h (0 Bft) W-NW 292 -2,2 C -1,1 C 0,0 km/h (0 Bft)
20.01.2020 02:24 -1,1 C 0,6 C 1,0 C 92 % 1039,8 hPa 0,0 l/m 0,0 km/h (0 Bft) W-NW 292 -2,2 C -1,1 C 0,0 km/h (0 Bft)
20.01.2020 02:22 -1,1 C 0,6 C 1,0 C 92 % 1039,8 hPa 0,0 l/m 0,0 km/h (0 Bft) W-NW 292 -2,2 C -1,1 C 0,0 km/h (0 Bft)
20.01.2020 02:20 -1,1 C 0,6 C 1,0 C 92 % 1039,8 hPa 0,0 l/m 0,0 km/h (0 Bft) W-NW 292 -2,2 C -1,1 C 0,0 km/h (0 Bft)
20.01.2020 02:18 -1,1 C 0,6 C 1,0 C 92 % 1039,8 hPa 0,0 l/m 0,0 km/h (0 Bft) W-NW 292 -2,2 C -1,1 C 0,0 km/h (0 Bft)
20.01.2020 02:16 -1,3 C 0,6 C 1,0 C 92 % 1039,8 hPa 0,0 l/m 0,0 km/h (0 Bft) W-NW 292 -2,4 C -1,3 C 0,0 km/h (0 Bft)
20.01.2020 02:14 -1,1 C 0,6 C 1,0 C 92 % 1039,8 hPa 0,0 l/m 0,0 km/h (0 Bft) W-NW 292 -2,2 C -1,1 C 0,0 km/h (0 Bft)
20.01.2020 02:12 -1,1 C 0,6 C 1,0 C 92 % 1039,8 hPa 0,0 l/m 0,0 km/h (0 Bft) W-NW 292 -2,2 C -1,1 C 0,0 km/h (0 Bft)
20.01.2020 02:10 -1,1 C 0,6 C 1,0 C 92 % 1039,8 hPa 0,0 l/m 0,0 km/h (0 Bft) W-NW 292 -2,2 C -1,1 C 0,0 km/h (0 Bft)
20.01.2020 02:08 -1,1 C 0,6 C 1,0 C 92 % 1039,8 hPa 0,0 l/m 0,0 km/h (0 Bft) W-NW 292 -2,2 C -1,1 C 0,0 km/h (0 Bft)
20.01.2020 02:06 -1,1 C 0,6 C 1,0 C 92 % 1039,8 hPa 0,0 l/m 0,0 km/h (0 Bft) W-NW 292 -2,2 C -1,1 C 0,0 km/h (0 Bft)
20.01.2020 02:04 -1,1 C 0,6 C 1,0 C 92 % 1039,8 hPa 0,0 l/m 0,0 km/h (0 Bft) W-NW 292 -2,2 C -1,1 C 0,0 km/h (0 Bft)
20.01.2020 02:02 -1,1 C 0,6 C 1,0 C 92 % 1039,8 hPa 0,0 l/m 0,0 km/h (0 Bft) W-NW 292 -2,2 C -1,1 C 0,0 km/h (0 Bft)
20.01.2020 02:00 -1,1 C 0,6 C 1,0 C 92 % 1039,8 hPa 0,0 l/m 0,0 km/h (0 Bft) W-NW 292 -2,2 C -1,1 C 0,0 km/h (0 Bft)
20.01.2020 01:58 -1,1 C 0,6 C 1,0 C 92 % 1039,8 hPa 0,0 l/m 0,0 km/h (0 Bft) W-NW 292 -2,2 C -1,1 C 0,0 km/h (0 Bft)
20.01.2020 01:56 -1,1 C 0,6 C 1,0 C 92 % 1039,8 hPa 0,0 l/m 0,0 km/h (0 Bft) W-NW 292 -2,2 C -1,1 C 0,0 km/h (0 Bft)
20.01.2020 01:54 -1,1 C 0,6 C 1,0 C 92 % 1039,8 hPa 0,0 l/m 0,0 km/h (0 Bft) W-NW 292 -2,2 C -1,1 C 0,0 km/h (0 Bft)
20.01.2020 01:52 -1,1 C 0,6 C 1,0 C 92 % 1039,8 hPa 0,0 l/m 0,0 km/h (0 Bft) W-NW 292 -2,2 C -1,1 C 0,0 km/h (0 Bft)
20.01.2020 01:50 -1,1 C 0,6 C 1,0 C 92 % 1039,8 hPa 0,0 l/m 0,0 km/h (0 Bft) W-NW 292 -2,2 C -1,1 C 0,0 km/h (0 Bft)
20.01.2020 01:48 -1,1 C 0,6 C 1,0 C 92 % 1039,5 hPa 0,0 l/m 0,0 km/h (0 Bft) W-NW 292 -2,2 C -1,1 C 0,0 km/h (0 Bft)
20.01.2020 01:46 -1,1 C 0,6 C 1,0 C 92 % 1039,5 hPa 0,0 l/m 0,0 km/h (0 Bft) W-NW 292 -2,2 C -1,1 C 0,0 km/h (0 Bft)
20.01.2020 01:44 -1,1 C 0,6 C 1,0 C 92 % 1039,5 hPa 0,0 l/m 0,0 km/h (0 Bft) W-NW 292 -2,2 C -1,1 C 0,0 km/h (0 Bft)
20.01.2020 01:42 -1,1 C 0,6 C 1,0 C 92 % 1039,5 hPa 0,0 l/m 0,0 km/h (0 Bft) W-NW 292 -2,2 C -1,1 C 0,0 km/h (0 Bft)
20.01.2020 01:40 -1,1 C 0,6 C 1,0 C 92 % 1039,5 hPa 0,0 l/m 0,0 km/h (0 Bft) W-NW 292 -2,2 C -1,1 C 0,0 km/h (0 Bft)
20.01.2020 01:38 -1,1 C 0,6 C 1,0 C 92 % 1039,5 hPa 0,0 l/m 0,0 km/h (0 Bft) W-NW 292 -2,2 C -1,1 C 0,0 km/h (0 Bft)
20.01.2020 01:36 -1,1 C 0,6 C 1,0 C 92 % 1039,5 hPa 0,0 l/m 0,0 km/h (0 Bft) W-NW 292 -2,2 C -1,1 C 0,0 km/h (0 Bft)
20.01.2020 01:34 -1,1 C 0,6 C 1,0 C 92 % 1039,5 hPa 0,0 l/m 0,0 km/h (0 Bft) W-NW 292 -2,2 C -1,1 C 0,0 km/h (0 Bft)
20.01.2020 01:32 -1,1 C 0,6 C 1,0 C 92 % 1039,5 hPa 0,0 l/m 0,0 km/h (0 Bft) W-NW 292 -2,2 C -1,1 C 0,0 km/h (0 Bft)
20.01.2020 01:30 -1,1 C 0,6 C 1,0 C 92 % 1039,5 hPa 0,0 l/m 0,0 km/h (0 Bft) W-NW 292 -2,2 C -1,1 C 0,0 km/h (0 Bft)
20.01.2020 01:28 -1,1 C 0,6 C 1,0 C 92 % 1039,6 hPa 0,0 l/m 0,0 km/h (0 Bft) W-NW 292 -2,2 C -1,1 C 0,0 km/h (0 Bft)
20.01.2020 01:26 -1,1 C 0,6 C 1,0 C 92 % 1039,6 hPa 0,0 l/m 0,0 km/h (0 Bft) W-NW 292 -2,2 C -1,1 C 0,0 km/h (0 Bft)
20.01.2020 01:24 -1,1 C 0,6 C 1,0 C 92 % 1039,6 hPa 0,0 l/m 0,0 km/h (0 Bft) W-NW 292 -2,2 C -1,1 C 0,0 km/h (0 Bft)
20.01.2020 01:22 -1,1 C 0,6 C 1,0 C 92 % 1039,6 hPa 0,0 l/m 0,0 km/h (0 Bft) W-NW 292 -2,2 C -1,1 C 0,0 km/h (0 Bft)
20.01.2020 01:20 -1,1 C 0,6 C 1,0 C 92 % 1039,6 hPa 0,0 l/m 0,0 km/h (0 Bft) W-NW 292 -2,2 C -1,1 C 0,0 km/h (0 Bft)
20.01.2020 01:18 -1,1 C 0,6 C 1,0 C 92 % 1039,6 hPa 0,0 l/m 0,0 km/h (0 Bft) W-NW 292 -2,2 C -1,1 C 0,0 km/h (0 Bft)
20.01.2020 01:16 -1,3 C 0,6 C 1,0 C 92 % 1039,6 hPa 0,0 l/m 0,0 km/h (0 Bft) W-NW 292 -2,4 C -1,3 C 0,0 km/h (0 Bft)
20.01.2020 01:14 -1,3 C 0,6 C 1,0 C 92 % 1039,6 hPa 0,0 l/m 0,0 km/h (0 Bft) W-NW 292 -2,4 C -1,3 C 0,0 km/h (0 Bft)
20.01.2020 01:12 -1,1 C 0,6 C 1,0 C 92 % 1039,6 hPa 0,0 l/m 0,0 km/h (0 Bft) W-NW 292 -2,2 C -1,1 C 0,0 km/h (0 Bft)
20.01.2020 01:10 -1,1 C 0,6 C 1,0 C 92 % 1039,6 hPa 0,0 l/m 0,0 km/h (0 Bft) W-NW 292 -2,2 C -1,1 C 0,0 km/h (0 Bft)
20.01.2020 01:08 -1,1 C 0,6 C 1,0 C 92 % 1039,4 hPa 0,0 l/m 0,0 km/h (0 Bft) W-NW 292 -2,2 C -1,1 C 0,0 km/h (0 Bft)
20.01.2020 01:06 -1,3 C 0,6 C 1,0 C 92 % 1039,4 hPa 0,0 l/m 0,0 km/h (0 Bft) W-NW 292 -2,4 C -1,3 C 0,0 km/h (0 Bft)
20.01.2020 01:04 -1,1 C 0,6 C 1,0 C 92 % 1039,4 hPa 0,0 l/m 0,0 km/h (0 Bft) W-NW 292 -2,2 C -1,1 C 0,0 km/h (0 Bft)
20.01.2020 01:02 -1,1 C 0,6 C 1,0 C 92 % 1039,4 hPa 0,0 l/m 0,0 km/h (0 Bft) W-NW 292 -2,2 C -1,1 C 0,0 km/h (0 Bft)
20.01.2020 01:00 -1,3 C 0,6 C 1,0 C 92 % 1039,4 hPa 0,0 l/m 0,0 km/h (0 Bft) W-NW 292 -2,4 C -1,3 C 0,0 km/h (0 Bft)
20.01.2020 00:58 -1,1 C 0,6 C 1,0 C 92 % 1039,4 hPa 0,0 l/m 0,0 km/h (0 Bft) W-NW 292 -2,2 C -1,1 C 0,0 km/h (0 Bft)
20.01.2020 00:56 -1,1 C 0,6 C 1,0 C 92 % 1039,4 hPa 0,0 l/m 0,0 km/h (0 Bft) W-NW 292 -2,2 C -1,1 C 0,0 km/h (0 Bft)
20.01.2020 00:54 -1,1 C 0,6 C 1,0 C 92 % 1039,4 hPa 0,0 l/m 0,0 km/h (0 Bft) W-NW 292 -2,2 C -1,1 C 0,0 km/h (0 Bft)
20.01.2020 00:52 -1,1 C 0,6 C 1,0 C 92 % 1039,4 hPa 0,0 l/m 0,0 km/h (0 Bft) W-NW 292 -2,2 C -1,1 C 0,0 km/h (0 Bft)
20.01.2020 00:50 -1,1 C 0,6 C 1,0 C 92 % 1039,4 hPa 0,0 l/m 0,0 km/h (0 Bft) W-NW 292 -2,2 C -1,1 C 0,0 km/h (0 Bft)
20.01.2020 00:48 -1,1 C 0,6 C 1,0 C 92 % 1039,2 hPa 0,0 l/m 0,0 km/h (0 Bft) W-NW 292 -2,2 C -1,1 C 0,0 km/h (0 Bft)
20.01.2020 00:46 -1,1 C 0,6 C 1,0 C 92 % 1039,2 hPa 0,0 l/m 0,0 km/h (0 Bft) W-NW 292 -2,2 C -1,1 C 0,0 km/h (0 Bft)
20.01.2020 00:44 -1,1 C 0,6 C 1,0 C 92 % 1039,2 hPa 0,0 l/m 0,0 km/h (0 Bft) W-NW 292 -2,2 C -1,1 C 0,0 km/h (0 Bft)
20.01.2020 00:42 -1,1 C 0,6 C 1,0 C 92 % 1039,2 hPa 0,0 l/m 0,0 km/h (0 Bft) W-NW 292 -2,2 C -1,1 C 0,0 km/h (0 Bft)
20.01.2020 00:40 -1,1 C 0,6 C 1,0 C 92 % 1039,2 hPa 0,0 l/m 0,0 km/h (0 Bft) W-NW 292 -2,2 C -1,1 C 0,0 km/h (0 Bft)
20.01.2020 00:38 -1,1 C 0,6 C 1,0 C 92 % 1039,2 hPa 0,0 l/m 0,0 km/h (0 Bft) W-NW 292 -2,2 C -1,1 C 0,0 km/h (0 Bft)
20.01.2020 00:36 -1,1 C 0,6 C 1,0 C 92 % 1039,2 hPa 0,0 l/m 0,0 km/h (0 Bft) W-NW 292 -2,2 C -1,1 C 0,0 km/h (0 Bft)
20.01.2020 00:34 -1,1 C 0,6 C 1,0 C 92 % 1039,2 hPa 0,0 l/m 0,0 km/h (0 Bft) W-NW 292 -2,2 C -1,1 C 0,0 km/h (0 Bft)
20.01.2020 00:32 -1,1 C 0,6 C 1,0 C 92 % 1039,2 hPa 0,0 l/m 0,0 km/h (0 Bft) W-NW 292 -2,2 C -1,1 C 0,0 km/h (0 Bft)
20.01.2020 00:30 -1,1 C 0,6 C 1,0 C 92 % 1039,2 hPa 0,0 l/m 0,0 km/h (0 Bft) W-NW 292 -2,2 C -1,1 C 0,0 km/h (0 Bft)
20.01.2020 00:28 -1,1 C 0,6 C 1,0 C 92 % 1039,4 hPa 0,0 l/m 0,0 km/h (0 Bft) W-NW 292 -2,2 C -1,1 C 0,0 km/h (0 Bft)
20.01.2020 00:26 -1,1 C 0,6 C 1,0 C 92 % 1039,4 hPa 0,0 l/m 0,0 km/h (0 Bft) W-NW 292 -2,2 C -1,1 C 0,0 km/h (0 Bft)
20.01.2020 00:24 -1,1 C 0,6 C 1,0 C 92 % 1039,4 hPa 0,0 l/m 0,0 km/h (0 Bft) W-NW 292 -2,2 C -1,1 C 0,0 km/h (0 Bft)
20.01.2020 00:22 -1,3 C 0,6 C 1,0 C 92 % 1039,4 hPa 0,0 l/m 0,0 km/h (0 Bft) W-NW 292 -2,4 C -1,3 C 0,0 km/h (0 Bft)
20.01.2020 00:20 -1,1 C 0,6 C 1,0 C 92 % 1039,4 hPa 0,0 l/m 0,0 km/h (0 Bft) W-NW 292 -2,2 C -1,1 C 0,0 km/h (0 Bft)
20.01.2020 00:18 -1,1 C 0,6 C 1,0 C 92 % 1039,4 hPa 0,0 l/m 0,0 km/h (0 Bft) W-NW 292 -2,2 C -1,1 C 0,0 km/h (0 Bft)
20.01.2020 00:16 -1,1 C 0,6 C 1,0 C 92 % 1039,4 hPa 0,0 l/m 0,0 km/h (0 Bft) W-NW 292 -2,2 C -1,1 C 0,0 km/h (0 Bft)
20.01.2020 00:14 -1,1 C 0,6 C 1,0 C 92 % 1039,4 hPa 0,0 l/m 0,0 km/h (0 Bft) W-NW 292 -2,2 C -1,1 C 0,0 km/h (0 Bft)
20.01.2020 00:12 -1,1 C 0,6 C 1,0 C 92 % 1039,4 hPa 0,0 l/m 0,0 km/h (0 Bft) W-NW 292 -2,2 C -1,1 C 0,0 km/h (0 Bft)
20.01.2020 00:10 -1,2 C 0,7 C 1,0 C 91 % 1039,4 hPa 0,0 l/m 0,0 km/h (0 Bft) W-NW 292 -2,5 C -1,2 C 0,0 km/h (0 Bft)
20.01.2020 00:08 -1,2 C 0,7 C 1,0 C 91 % 1039,1 hPa 0,0 l/m 0,0 km/h (0 Bft) W-NW 292 -2,5 C -1,2 C 0,0 km/h (0 Bft)
20.01.2020 00:06 -1,2 C 0,7 C 1,0 C 91 % 1039,1 hPa 0,0 l/m 0,0 km/h (0 Bft) W-NW 292 -2,5 C -1,2 C 0,0 km/h (0 Bft)
20.01.2020 00:04 -1,2 C 0,7 C 1,0 C 91 % 1039,1 hPa 0,0 l/m 0,0 km/h (0 Bft) W-NW 292 -2,5 C -1,2 C 0,0 km/h (0 Bft)
20.01.2020 00:02 -1,2 C 0,7 C 1,0 C 91 % 1039,1 hPa 0,0 l/m 0,0 km/h (0 Bft) W-NW 292 -2,5 C -1,2 C 0,0 km/h (0 Bft)
20.01.2020 00:00 -1,1 C 0,7 C 1,0 C 92 % 1039,1 hPa 0,0 l/m 0,0 km/h (0 Bft) W-NW 292 -2,2 C -1,1 C 0,0 km/h (0 Bft)
_ Min-Zeit 04:24 05:50 00:00 13:08 00:00 - 00:00 - - 04:24 04:24 00:00
Minimum _ -1,4 C 0,5 C 1,0 C 90 % 1039,1 hPa - 0,0 km/h (0 Bft) - - -2,5 C -1,4 C 0,0 km/h (0 Bft)
_ Max-Zeit 12:22 12:42 11:20 00:00 10:50 06:12 15:32 - - 12:12 12:22 14:08
Maximum _ 0,4 C 1,1 C 1,1 C 92 % 1044,9 hPa 0,7 l/m 5,3 km/h
NW (1 Bft)
- - -0,8 C 0,4 C 7,5 km/h
W-NW (2 Bft)
Durchschnitt _ -0,7 C 0,7 C 1,0 C 92 % 1042,3 hPa #5,0 l/m 0,2 km/h (0 Bft) W-NW - -1,9 C -0,7 C 0,4 km/h (0 Bft)